[{"header": {"dx": 0.06612293990616946, "dy": 0.0552356325346848, "nx": 98, "ny": 59, "la1": 35.046912555036876, "la2": 31.78801023549047, "lo1": -121.43107172385933, "lo2": -114.95102361305473, "refTime": "2026041805", "parameterCategory": 1, "parameterNumber": 2}, "data": [11.13, 11.65, 11.13, 11.28, 10.99, 10.33, 10.47, 10.11, 10.22, 9.87, 10.12, 10.18, 11.53, 11.6, 8.53, 0.0, 0.0, 0.0, 0.0, 0.0, 12.96, 12.96, 11.28, 10.84, 10.84, 11.4, 11.91, 11.87, 10.8, 10.48, 10.19, 10.37, 10.01, 8.94, 8.23, 7.87, 7.96, 8.4, 9.26, 10.28, 9.64, 10.0, 9.3, 10.01, 12.22, 14.91, 18.95, 20.83, 16.48, 12.11, 13.57, 13.19, 10.75, 12.22, 11.06, 11.06, 12.02, 12.73, 13.99, 14.3, 14.84, 14.84, 14.75, 14.9, 13.59, 13.42, 13.8, 11.38, -0.0, -0.0, -0.0, -0.0, -11.06, -14.84, -14.84, -11.06, -0.0, -0.0, 10.43, 10.43, -0.0, -0.0, 12.96, -12.52, -8.53, -6.45, -2.93, 0.0, 0.0, 3.53, 5.8, 7.1, 6.6, 7.54, 5.81, 6.4, 6.9, 9.17, 11.13, 11.13, 11.13, 11.28, 10.46, 10.61, 10.47, 10.11, 9.73, 9.87, 9.21, 10.43, 11.16, 10.41, 11.6, 8.53, 0.0, 0.0, 0.0, 0.0, 0.0, 9.17, 12.96, 12.96, 10.52, 11.18, 11.28, 11.71, 10.8, 10.01, 10.99, 10.65, 8.85, 6.95, 6.18, 7.76, 7.2, 8.48, 9.29, 10.28, 12.27, 11.99, 10.37, 9.89, 13.59, 16.44, 19.04, 15.88, 11.53, 13.99, 14.31, 10.75, 11.87, 11.68, 10.75, 11.06, 12.02, 12.89, 13.68, 14.3, 14.53, 14.56, 14.75, 14.11, 12.16, 12.22, 12.57, 9.66, -0.0, -0.0, -0.0, -0.0, -8.93, -14.42, -14.42, -13.99, -10.43, -0.0, 10.43, 10.43, -0.0, -0.0, 12.96, -12.52, -8.53, -6.45, -2.93, 0.0, 0.0, 3.53, 5.8, 7.1, 6.6, 7.54, 5.81, 6.4, 6.9, 9.17, 11.13, 11.13, 11.56, 10.73, 10.73, 10.89, 10.22, 10.4, 9.73, 9.87, 9.5, 8.54, 11.09, 11.6, 11.03, 10.4, 8.22, 0.0, 0.0, 0.0, 0.0, 0.0, 5.6, 13.41, 13.86, 10.52, 9.6, 10.41, 10.6, 9.67, 12.27, 12.16, 11.44, 8.94, 7.89, 9.21, 8.85, 8.89, 9.83, 11.46, 11.2, 11.33, 12.64, 13.54, 13.72, 14.13, 12.33, 10.3, 14.47, 14.75, 11.87, 12.65, 12.65, 11.87, 10.43, 10.75, 11.68, 13.27, 14.3, 14.53, 14.99, 14.56, 14.75, 12.16, 9.12, 9.77, 10.02, 10.02, 8.05, 3.9, -0.0, -0.0, -4.95, -12.65, -14.75, -14.75, -15.2, -0.0, 14.3, 14.75, 14.3, 13.41, 12.96, 12.07, -8.22, -5.2, -5.0, 0.0, 2.19, 6.44, 9.09, 7.4, 7.2, 5.34, 4.05, 2.28, 4.81, 7.51, 11.13, 11.13, 11.0, 10.73, 11.17, 10.31, 10.49, 10.68, 10.02, 9.34, 8.94, 8.51, 10.12, 8.85, 10.04, 11.03, 11.03, 5.4, 0.0, -2.93, -3.53, -5.0, 0.0, 0.0, 12.07, 12.3, 9.2, 9.54, 9.54, 11.18, 12.07, 13.86, 15.65, 11.06, 11.87, 10.41, 10.08, 10.58, 12.22, 12.98, 13.46, 14.59, 13.91, 13.39, 12.65, 11.53, 12.87, 14.3, 13.7, 13.19, 12.81, 13.59, 12.65, 10.43, 9.22, 10.43, 12.65, 13.99, 14.3, 14.99, 14.95, 14.9, 13.56, 8.85, 7.59, 9.73, 9.09, 9.39, 11.48, 11.45, 6.31, -0.0, -0.0, -8.18, -14.3, -12.39, -10.43, 0.0, 15.2, 0.0, -6.0, 0.0, 9.17, 0.0, -7.9, -8.22, 0.0, 3.68, 5.75, 9.09, 10.73, 8.43, 6.16, 4.66, 0.0, 0.0, 3.14, 8.85, 10.57, 11.0, 11.0, 11.17, 10.57, 10.57, 10.77, 10.49, 9.54, 9.62, 9.22, 7.95, 10.12, 9.17, 8.53, 8.53, 8.22, 6.7, 0.0, -5.4, -7.19, -8.85, -10.4, -11.62, -10.73, 12.07, 12.52, 12.07, 11.18, 10.28, 7.59, 3.53, 0.0, 0.0, 2.81, 7.36, 10.75, 10.82, 12.87, 13.12, 12.01, 12.16, 13.15, 13.86, 13.86, 13.86, 13.75, 13.15, 13.56, 13.97, 13.19, 12.27, 11.44, 8.85, 9.22, 11.33, 13.2, 13.99, 14.3, 14.66, 14.69, 14.22, 11.44, 5.48, 8.18, 11.7, 11.06, 10.76, 11.93, 13.09, 13.91, 8.0, -0.0, -0.0, -11.06, -12.3, -9.8, -4.52, 6.2, 0.0, -4.1, 0.0, 0.0, 0.0, -5.0, -3.68, 0.0, 5.98, 8.68, 10.73, 10.13, 9.77, 6.6, 0.0, -5.8, 0.0, 5.8, 8.85, 10.57, 11.0, 11.0, 10.57, 10.57, 10.57, 10.77, 9.87, 9.81, 9.39, 8.94, 8.2, 8.58, 9.17, 8.85, 8.53, 7.24, 6.7, 2.37, -2.37, -5.2, -6.21, -9.48, -11.99, 0.0, 0.0, 0.0, 6.7, 7.19, 10.04, 6.95, 0.0, 0.0, 0.0, 1.2, 2.72, 4.71, 8.31, 10.01, 8.94, 8.85, 14.3, 13.86, 14.3, 14.3, 14.31, 12.81, 12.42, 12.42, 11.9, 11.88, 11.09, 9.8, 8.58, 10.43, 12.81, 13.81, 13.81, 14.9, 14.55, 13.8, 12.72, 6.6, 7.82, 10.05, 12.01, 12.33, 11.7, 13.05, 15.45, 19.59, 16.09, 5.8, -0.0, -0.0, 16.54, -9.48, -4.1, 0.0, 9.17, -3.82, -2.28, 0.0, 0.0, -2.82, 0.0, 1.96, 5.96, 9.12, 9.48, 8.93, 8.68, 5.81, -9.17, -10.37, 0.0, 6.67, 8.85, 10.57, 11.0, 10.38, 10.57, 10.57, 10.57, 10.77, 10.13, 9.61, 8.91, 8.94, 7.95, 8.58, 10.79, 9.48, 6.45, 5.4, 5.6, 4.65, 0.0, -1.71, -4.71, -4.87, -4.1, 0.0, 0.0, 0.0, 0.0, 2.45, 0.0, 0.0, 0.0, 0.0, 5.21, 4.4, 2.81, 2.72, 6.0, 6.97, 7.27, 12.52, 0.0, 13.57, 14.75, 15.65, 14.42, 13.1, 12.16, 11.09, 11.88, 11.44, 9.8, 11.17, 11.52, 12.79, 13.32, 13.88, 14.19, 14.3, 13.86, 13.33, 10.73, 6.8, 7.2, 9.92, 11.7, 12.9, 13.97, 13.99, 17.64, 20.56, 19.67, 16.99, 16.54, 16.99, 16.99, 15.2, 13.41, 0.0, 6.0, 0.0, 0.0, 0.0, 0.0, 0.0, 0.0, 3.77, 5.78, 7.81, 6.28, 5.23, 7.08, 0.0, -12.45, -9.48, 2.54, 6.44, 8.1, 10.73, 10.13, 10.57, 10.57, 10.57, 10.57, 9.67, 9.42, 9.61, 8.46, 8.43, 6.64, 7.36, 9.48, 11.09, 8.53, 7.51, 8.05, 6.67, 6.44, 5.6, 2.45, 0.0, 0.0, 0.0, 0.0, 0.0, 0.0, -1.91, -2.19, -3.53, -3.68, 0.0, 3.98, 5.0, 3.53, 2.19, 2.42, 5.6, 8.22, 0.0, 0.0, 0.0, 10.12, 14.75, 11.38, 11.06, 13.1, 12.27, 11.9, 9.77, 10.47, 10.65, 12.03, 12.74, 13.72, 13.86, 13.86, 13.41, 12.96, 11.62, 9.48, 3.69, 7.0, 9.66, 13.59, 15.61, 15.53, 14.75, 15.43, 17.64, 17.02, 11.38, 0.0, 0.0, 0.0, 14.3, 13.41, 0.0, 7.93, 11.06, 0.0, 0.0, 0.0, 0.0, 1.78, 3.68, 3.86, 3.59, 3.59, 4.23, 1.78, -9.48, -12.87, -6.0, 3.96, 6.7, 8.1, 10.13, 10.13, 10.57, 10.57, 10.57, 9.92, 9.67, 9.42, 9.17, 8.7, 7.54, 5.81, 4.95, 5.28, 6.0, 5.8, 6.0, 6.9, 7.78, 6.94, 10.41, 11.87, 12.04, 8.31, 2.2, 0.0, 0.0, 0.0, -4.48, -3.39, -1.64, 0.0, 1.25, 1.33, 2.0, 2.23, 1.76, 1.76, 0.0, 0.0, -5.6, -12.52, -12.52, -13.41, -14.3, -0.0, 14.39, 16.12, 14.39, 12.89, 11.33, 9.84, 10.73, 12.39, 12.74, 13.72, 13.86, 12.96, 12.52, 12.52, 8.85, -0.0, 3.69, 7.0, 12.87, 16.12, 17.43, 16.09, 14.18, 13.19, 12.87, 13.23, 9.92, 0.0, -3.58, -6.4, -9.8, -9.17, 0.0, 8.43, 13.23, 6.6, 2.02, 0.0, 1.78, 3.33, 3.42, 4.01, 3.49, 1.89, 0.0, -5.8, -10.79, -10.47, -2.2, 3.96, 6.7, 7.73, 9.88, 10.13, 10.57, 10.57, 10.57, 10.57, 9.67, 9.42, 8.93, 8.28, 7.36, 7.15, 6.2, 3.87, 2.81, 2.91, 4.38, 3.01, 1.96, 2.13, 2.06, 4.65, 9.17, 9.48, 4.98, 2.37, 2.39, 0.0, -2.63, -1.71, 0.0, 1.58, 0.0, 0.0, 0.0, 0.0, 2.6, 0.0, -2.82, -3.96, -8.53, -12.52, -12.07, -11.62, 11.62, 12.96, 9.48, 14.3, 15.18, 13.02, 11.2, 11.1, 10.77, 11.28, 12.74, 14.11, 13.86, 12.71, 12.52, 5.6, 3.58, 3.24, 5.51, 8.28, 13.8, 17.1, 17.88, 16.09, 13.59, 10.12, 8.85, 9.39, 7.2, 0.0, 0.0, -6.2, -8.05, -6.44, -2.54, 0.0, 10.19, 14.18, 11.7, 8.05, 4.38, 4.24, 6.2, 6.4, 5.31, 0.0, -9.17, -11.2, -8.85, -7.19, 0.0, 3.44, 6.43, 7.28, 9.88, 9.88, 10.13, 10.57, 10.57, 10.57, 10.31, 9.17, 9.17, 8.28, 8.05, 7.82, 7.82, 6.05, 4.5, 2.56, 3.58, 2.35, 2.3, 2.3, 2.21, 2.38, 4.66, 4.65, 5.11, 3.39, 2.02, 0.0, 0.0, 0.0, 1.98, 1.93, 0.0, -3.11, -3.65, -2.82, -3.68, -8.22, -6.45, -3.96, -9.17, -12.52, 12.52, 12.07, 11.62, 11.62, 12.07, 12.52, 11.6, 9.48, 8.18, 10.47, 11.38, 13.39, 15.78, 16.54, 16.54, 13.86, 7.9, -0.0, 1.93, 3.88, 5.81, 6.34, 7.2, 10.73, 13.59, 12.64, 8.43, 12.96, 0.0, 6.6, 11.38, 11.38, 10.75, 0.0, -5.2, -6.21, -4.52, -2.5, 0.0, 8.97, 13.8, 16.12, 15.27, 13.99, 14.42, 14.42, 13.88, 13.41, -12.52, -10.01, -6.94, -4.93, 0.0, 3.1, 5.63, 6.65, 9.88, 9.88, 10.13, 10.13, 10.13, 10.13, 9.88, 8.77, 8.77, 8.77, 7.89, 7.67, 8.05, 8.46, 8.43, 6.6, 4.65, 3.04, 2.91, 2.16, 3.1, 3.38, 3.28, 3.79, 4.24, 4.65, 4.48, 1.2, 0.0, 3.39, 7.9, 10.73, 7.59, 10.28, 4.6, -4.8, -9.6, -11.62, -11.62, 12.07, 8.85, 8.53, 8.22, 12.07, 10.73, 10.28, 12.07, 8.85, 9.17, 9.8, 7.93, 11.7, 13.28, 19.52, 19.22, 19.22, 20.12, 18.78, 3.82, -0.0, 1.78, 4.82, 5.01, 2.0, -0.0, -0.0, 3.67, 8.47, 9.0, 4.12, 4.66, 7.69, 10.43, 13.59, 12.96, 8.22, 0.0, -2.89, -4.95, -2.21, -2.28, 0.0, 8.74, 16.96, 18.59, 19.22, 17.43, 15.2, 14.75, 13.86, 12.52, 3.68, -4.32, -3.19, 0.0, 2.81, 3.2, 3.47, 9.88, 9.88, 9.88, 10.13, 10.13, 10.13, 9.88, 9.0, 8.77, 8.53, 8.53, 7.67, 8.05, 9.35, 10.08, 10.47, 9.61, 7.06, 4.66, 4.13, 4.52, 4.96, 5.46, 8.57, 11.17, 12.39, 12.72, 12.04, 11.71, 9.83, 11.18, 11.18, 10.6, 11.18, 11.18, 7.59, -0.0, -0.0, -0.0, -0.0, 8.22, 8.22, 10.0, 9.83, 0.0, 0.0, 0.0, 0.0, 12.96, 13.41, 12.52, 13.41, 14.3, 15.2, 16.99, 12.96, 14.22, 20.39, 7.2, -0.0, -0.0, 3.24, 3.42, -0.0, -3.28, -4.88, -0.0, 6.07, 13.64, 15.02, 11.5, 14.86, 11.44, 9.67, 9.83, 10.4, 13.19, 5.09, 0.0, 0.0, -4.42, -2.34, 2.28, 5.23, 15.77, 18.52, 19.52, 17.74, 15.93, 14.3, 13.72, 10.79, 6.2, 0.0, 1.77, 1.66, 1.61, 0.0, 9.88, 9.88, 10.13, 10.13, 10.13, 10.13, 9.88, 9.0, 9.0, 8.77, 8.53, 8.29, 8.05, 9.35, 9.61, 11.16, 12.33, 11.19, 9.23, 7.88, 7.66, 8.16, 8.72, 10.75, 13.58, 14.75, 15.11, 14.68, 13.86, 12.96, 10.73, 10.73, 11.18, 10.28, 9.2, 4.8, 3.25, -0.0, -0.0, -0.0, 7.59, 10.28, 10.73, 10.28, 0.0, 0.0, 0.0, 0.0, 0.0, 5.6, 5.6, 3.82, 0.0, 12.07, 12.52, 8.85, 0.0, 0.0, 21.46, -0.0, -4.38, -0.0, -0.0, -2.4, -4.01, -7.4, -9.67, -0.0, 19.19, 16.12, 16.75, 17.45, 17.02, 10.28, 11.03, 10.43, 11.7, 12.33, 9.42, 5.37, 0.0, 0.0, 0.0, 1.51, 8.05, 12.92, 16.44, 17.62, 17.26, 16.37, 14.19, 11.51, 10.79, 8.85, 6.0, 4.24, 0.0, 0.0, 9.47, 9.47, 9.71, 9.71, 9.71, 10.38, 10.13, 9.24, 9.0, 8.77, 8.53, 8.29, 8.93, 9.35, 9.61, 10.63, 11.73, 12.33, 12.33, 11.29, 11.06, 11.38, 11.06, 12.35, 13.42, 14.53, 14.66, 14.31, 14.11, 13.79, 12.27, 10.28, 11.18, 7.27, 4.6, -0.0, 3.39, 3.11, 5.0, 6.95, 10.28, 10.73, 8.8, 6.95, 6.95, 6.95, 0.0, 10.28, 10.73, 7.9, 3.68, 6.2, 7.59, -0.0, -0.0, 10.73, 5.2, 0.0, 0.0, -0.0, -4.81, -4.1, -4.38, -4.52, -6.6, -10.75, -16.54, -16.99, 16.09, 9.0, 14.54, 21.04, 20.56, 11.62, 9.48, 9.17, 9.67, 9.92, 12.01, 14.13, 16.54, 14.13, 5.81, 2.2, 0.0, 4.18, 8.43, 13.39, 15.27, 16.31, 16.82, 12.89, 10.8, 10.73, 10.73, 0.0, -1.83, -1.83, 9.47, 9.47, 9.71, 9.71, 10.31, 9.96, 9.71, 9.48, 9.0, 8.77, 8.53, 7.89, 8.28, 9.61, 9.87, 9.87, 11.78, 11.73, 13.29, 12.33, 12.96, 12.63, 13.38, 13.58, 13.74, 14.44, 14.03, 14.53, 14.53, 14.51, 14.19, 12.96, 9.75, 7.59, 4.6, -0.0, -0.0, 2.49, 7.59, 10.28, 9.39, 9.39, 10.28, 9.83, 9.83, 9.39, 6.95, -0.0, 7.27, 10.28, 10.0, 10.4, 11.62, 8.93, 6.64, 8.8, 9.75, 9.67, 14.75, -0.0, -0.0, -0.0, -0.0, -0.0, 12.07, 12.96, 12.96, -10.75, -16.09, -0.0, 21.46, 18.52, 17.26, 13.28, 5.64, 3.59, 4.66, 10.41, 16.39, 18.33, 17.39, 17.78, 16.99, 13.19, 7.24, 2.19, 2.91, 5.8, 8.1, 11.88, 13.99, 11.26, 11.12, 11.99, 11.12, 5.4, 0.0, 0.0, 9.47, 9.47, 9.71, 10.31, 10.31, 9.96, 9.96, 9.07, 9.24, 9.0, 8.53, 8.28, 8.94, 8.94, 9.87, 10.36, 10.97, 11.78, 12.9, 12.96, 12.96, 13.15, 13.74, 13.95, 14.39, 15.02, 15.16, 15.47, 15.47, 15.68, 15.58, 14.75, 12.96, 12.07, 6.32, -0.0, 3.11, 7.59, 10.28, 9.83, 8.8, 8.94, 10.28, 8.94, 9.83, 9.83, -0.0, -0.0, 4.6, 9.2, 9.2, 9.6, 9.3, 7.59, 8.93, 9.97, 10.28, 10.73, 9.66, 5.8, 3.04, 3.53, 7.59, 9.6, 10.73, 10.28, 11.62, 0.0, -9.8, 0.0, 15.49, 16.39, 12.64, 9.4, 2.53, 0.0, 0.0, 0.0, 19.67, 18.78, 17.88, 16.54, 16.66, 15.2, 14.3, 11.28, 0.0, 1.83, 6.0, 9.8, 11.8, 11.16, 9.77, 10.79, 11.99, 8.53, 4.65, 4.65, 9.09, 9.09, 9.32, 10.31, 10.31, 9.96, 9.96, 9.07, 9.24, 9.0, 8.77, 8.28, 8.51, 8.94, 9.67, 10.08, 11.26, 11.78, 12.01, 12.8, 12.8, 13.15, 13.38, 14.13, 15.02, 15.47, 15.69, 15.27, 15.55, 15.47, 15.25, 14.95, 14.3, 11.62, 10.41, 7.27, 9.83, 10.28, 9.33, 9.33, 8.8, 6.95, 6.95, 7.27, 10.28, 4.6, -0.0, 4.6, 4.6, 7.27, 7.27, 7.27, 7.27, 7.27, 7.27, 9.2, 9.2, 9.2, 7.9, 6.71, 8.53, 9.67, 10.18, 10.18, 10.73, 9.83, 9.39, 9.2, 0.0, 0.0, 0.0, 13.91, 13.91, 0.0, 0.0, -5.37, -9.2, -10.41, -13.91, 0.0, 0.0, 12.64, 17.35, 13.23, 13.41, 12.14, 5.8, 0.0, 1.9, 5.63, 10.12, 10.79, 9.08, 8.53, 10.99, 10.12, 7.82, 7.82, 9.09, 9.09, 9.09, 9.67, 9.92, 9.71, 9.96, 9.07, 9.48, 9.24, 8.11, 8.51, 8.51, 9.19, 9.41, 11.53, 10.08, 11.18, 11.91, 12.87, 14.09, 14.33, 12.8, 13.82, 12.73, 14.79, 11.41, 13.59, 14.53, 12.74, 13.35, 14.03, 13.41, 11.91, 10.96, 10.73, 9.97, 9.2, 9.3, 8.93, 8.18, 9.2, 10.0, 11.18, 10.4, 4.8, 4.8, 4.6, 7.27, 7.27, 7.27, 7.27, 7.27, 7.27, 6.17, 7.27, 8.23, 8.94, 9.66, 8.22, 9.67, 11.03, 10.6, 9.83, 9.83, 8.4, 6.64, 10.28, 8.38, 11.9, 17.88, 19.91, 22.69, 24.59, 17.97, 5.23, -6.47, -8.51, -6.31, -4.23, 3.33, 8.97, 9.92, 11.38, 13.8, 13.8, 11.7, 7.2, 1.58, 2.63, 5.63, 8.59, 10.3, 8.85, 9.8, 11.17, 10.82, 10.82, 9.09, 9.09, 9.09, 9.67, 9.32, 9.71, 9.71, 9.07, 9.48, 9.24, 8.33, 8.51, 8.51, 9.19, 9.19, 9.41, 10.08, 8.91, 10.19, 12.56, 13.76, 13.46, 13.05, 12.33, 10.6, 11.06, 11.1, 10.73, 11.39, 11.04, 11.39, 12.42, 11.91, 11.21, 11.4, 10.73, 10.41, 9.96, 10.18, 9.75, 9.96, 10.52, 10.96, 11.18, 9.58, 9.67, 7.27, 7.27, 7.27, 6.95, 6.95, 5.7, 4.8, 5.0, 4.4, 6.95, 7.9, 7.59, 9.6, 11.03, 10.6, 10.73, 10.73, 10.73, -0.0, -4.6, -4.6, 7.9, 12.07, 13.28, 15.69, 18.66, 23.42, 26.21, 20.96, 16.27, 14.66, 0.0, -4.23, 0.0, 0.0, 5.23, 8.74, 8.51, 10.33, 12.22, 12.27, 12.04, 4.38, 1.77, 1.48, 6.2, 9.89, 8.05, 8.05, 9.73, 11.33, 11.33, 9.09, 9.09, 9.67, 9.67, 9.09, 9.47, 9.71, 9.07, 9.48, 8.77, 8.33, 8.51, 8.51, 9.19, 9.19, 10.36, 10.08, 8.91, 7.73, 10.43, 11.58, 11.06, 11.38, 10.87, 10.87, 11.38, 10.43, 10.25, 9.59, 9.42, 10.4, 11.62, 10.79, 10.79, 10.4, 10.84, 11.18, 10.52, 10.52, 11.02, 11.02, 11.18, 11.18, 11.95, 11.03, 10.04, 6.95, 7.27, 7.27, 7.27, 6.95, 3.25, 2.6, 2.71, 4.8, 6.17, 6.2, 7.15, 9.3, 10.0, 11.18, 11.18, 10.73, 11.18, -4.6, -7.59, -4.8, -0.0, 5.8, 8.87, 11.06, 15.46, 22.05, 24.99, 19.37, 15.8, 12.47, 3.67, -7.69, -5.94, 0.0, 0.0, 6.6, 10.73, 12.39, 12.45, 13.41, 13.41, 13.41, 7.24, 1.77, 4.24, 7.82, 7.11, 6.2, 7.82, 9.6, 9.6, 8.86, 9.09, 9.67, 9.09, 9.09, 9.09, 8.84, 9.07, 9.48, 8.55, 8.33, 8.51, 8.51, 8.74, 9.19, 9.87, 10.36, 9.81, 9.35, 10.22, 10.4, 10.27, 9.97, 10.75, 11.86, 12.71, 12.46, 12.29, 10.82, 11.33, 11.61, 11.62, 10.79, 10.4, 10.4, 10.84, 11.62, 11.62, 10.96, 10.96, 11.02, 11.02, 11.18, 11.91, 10.38, 9.2, 7.59, 8.8, 7.27, 4.6, 4.6, 3.39, 2.6, 2.71, 4.8, 5.0, 5.2, 5.6, 5.98, 7.59, 10.28, 0.0, 11.18, -5.0, -3.53, -3.53, -3.68, -3.82, -0.0, -0.0, 4.95, 15.71, 21.65, 24.14, 7.9, 8.46, 11.48, 11.53, 0.0, -10.42, -7.22, -2.72, 0.0, 10.75, 12.79, 13.15, 13.41, 13.88, 12.65, 11.45, 8.53, 4.71, 6.4, 7.1, 5.63, 5.63, 8.18, 8.18, 8.86, 8.86, 8.86, 9.09, 9.09, 9.09, 8.84, 8.84, 9.24, 8.55, 8.33, 8.51, 8.51, 8.51, 9.19, 9.87, 10.36, 10.08, 10.68, 11.52, 11.7, 11.38, 10.43, 9.67, 10.87, 12.02, 13.23, 13.9, 13.34, 13.28, 13.31, 12.96, 11.91, 11.28, 11.28, 11.28, 11.62, 11.62, 11.28, 11.4, 11.4, 11.62, 11.62, 11.28, 10.4, 8.94, 9.6, 8.4, 6.64, 4.6, 3.25, 3.39, 3.39, 2.71, 2.6, 2.6, -0.0, 3.56, 6.67, 4.2, 9.39, -10.28, -10.4, -3.68, -2.71, -2.71, -2.82, -0.0, -0.0, -0.0, 13.86, 0.0, -0.0, 0.0, 1.84, 4.4, 6.79, 9.12, 9.87, 0.0, -10.19, -8.43, -2.57, 0.0, 5.48, 8.31, 9.8, 8.94, 8.43, 12.64, 12.37, 9.31, 7.1, 4.52, 2.35, 3.93, 7.1, 7.1, 8.86, 8.86, 8.86, 9.42, 9.09, 9.09, 8.84, 8.84, 9.24, 8.55, 8.33, 8.51, 8.51, 8.51, 9.19, 9.87, 10.36, 10.68, 10.68, 11.52, 12.52, 12.71, 12.02, 11.25, 10.54, 11.33, 12.5, 13.78, 13.99, 14.28, 13.96, 13.75, 12.96, 12.52, 11.62, 11.18, 11.18, 11.18, 11.62, 11.28, 11.62, 11.62, 11.62, 11.28, 9.67, 9.3, 11.2, 10.0, 7.59, 5.0, 3.68, 3.53, 3.39, -0.0, -0.0, -0.0, -0.0, -0.0, 3.14, 5.2, 4.0, -9.39, -10.0, -6.45, -5.0, -2.37, -0.0, -0.0, -0.0, 11.18, 3.53, 0.0, -25.93, -25.19, -11.7, 0.0, 5.28, 5.27, 8.57, 5.64, -5.09, -8.47, -5.01, -1.83, 0.0, 2.34, 4.54, 6.12, 8.4, 8.87, 12.01, 9.48, 9.8, 6.2, 2.35, 3.93, 5.46, 5.46, 8.86, 8.86, 8.86, 9.42, 8.86, 8.86, 8.84, 8.84, 8.84, 8.55, 8.33, 8.51, 8.51, 8.51, 8.51, 9.87, 9.61, 10.68, 10.68, 11.22, 12.01, 12.97, 13.11, 12.36, 11.68, 11.33, 11.8, 12.27, 13.59, 13.43, 14.13, 13.88, 12.89, 12.79, 12.52, 11.62, 11.18, 11.18, 11.18, 11.62, 11.62, 11.62, 10.6, 10.6, 10.6, 10.18, 11.03, 10.41, 8.8, 6.95, 7.59, 5.6, -0.0, -0.0, -0.0, -0.0, -0.0, -0.0, -0.0, 8.85, 10.6, 9.39, -6.95, -5.95, -5.2, -2.93, -0.0, -0.0, -0.0, 5.2, 6.9, 9.39, 20.78, 26.89, 26.89, 19.95, 17.88, 5.81, 5.02, 5.28, 2.28, -4.42, -4.94, -3.6, 0.0, 0.0, 2.07, 4.07, 4.79, 4.3, 8.74, 13.19, 13.28, 14.31, 7.44, 4.38, 5.46, 5.46, 8.62, 8.62, 8.62, 9.42, 8.86, 8.86, 8.86, 8.61, 8.84, 8.55, 8.33, 8.74, 8.51, 8.51, 8.51, 9.61, 9.61, 10.68, 10.68, 10.68, 12.01, 12.48, 12.97, 13.11, 12.4, 12.16, 11.8, 11.9, 12.56, 12.79, 13.07, 12.98, 12.56, 12.89, 12.27, 12.07, 11.62, 11.18, 11.18, 11.18, 11.18, 11.62, 10.6, 10.6, 10.18, 10.18, 11.62, 10.28, 9.54, 8.18, 9.3, 6.2, -0.0, -0.0, -0.0, -0.0, -0.0, -0.0, -0.0, 11.62, 12.07, 11.71, 7.81, -0.0, -3.53, -0.0, -0.0, -0.0, -0.0, 0.0, 7.24, 10.12, 15.19, 24.14, 26.9, 21.46, 15.49, 12.64, 0.0, 1.28, 3.25, 0.0, -1.88, -5.39, -3.69, 0.0, 0.0, 2.21, 0.0, 0.0, 0.0, 14.18, 14.42, 15.49, 13.15, 10.12, 7.69, 7.69, 8.62, 8.62, 9.17, 9.42, 8.86, 8.86, 8.86, 8.25, 8.61, 8.33, 8.33, 8.33, 8.51, 8.51, 8.51, 9.61, 9.61, 10.08, 10.68, 10.68, 11.22, 12.15, 12.15, 12.63, 12.76, 12.4, 12.16, 12.45, 12.27, 12.39, 11.72, 10.73, 10.37, 10.55, 10.73, 12.14, 12.52, 12.07, 12.07, 11.62, 11.18, 11.62, 11.62, 9.6, 10.28, 11.18, 11.18, 10.28, 9.83, 9.83, 9.6, 5.0, -0.0, -0.0, -0.0, -0.0, -0.0, -0.0, -6.64, 10.28, 12.07, 10.84, 10.0, 7.59, 3.96, -0.0, -0.0, -0.0, 12.96, 0.0, 7.19, 9.48, 10.43, 16.12, 19.73, 21.81, 11.0, 19.67, 0.0, 0.0, 2.52, 3.14, 0.0, -6.16, -7.26, -1.97, 0.0, 0.0, 0.0, -4.66, -2.15, 2.34, 14.95, 14.79, 13.97, 12.79, 11.17, 11.17, 8.62, 8.62, 9.17, 8.86, 8.86, 8.86, 8.25, 8.25, 8.61, 8.33, 8.33, 8.33, 8.74, 8.74, 8.74, 8.94, 9.61, 9.61, 10.68, 10.68, 11.22, 11.22, 12.15, 11.83, 12.29, 12.4, 12.16, 12.29, 12.09, 11.29, 11.09, 11.09, 10.18, 9.96, 10.73, 12.14, 12.52, 12.52, 12.07, 12.07, 11.62, 11.62, 11.18, 10.28, 9.83, 10.73, 10.28, 10.28, 9.83, 10.28, 11.18, 4.8, -0.0, -0.0, -0.0, -0.0, -0.0, -0.0, -7.27, -10.28, 11.18, 11.18, 10.96, 10.8, 8.22, 3.96, 6.0, 12.52, 0.0, 0.0, 6.4, 12.79, 10.47, 8.31, 6.8, 0.0, 23.69, 19.22, 4.38, 1.83, 1.5, 3.34, 1.66, -1.77, -4.24, -3.16, -3.07, -4.95, -5.81, -4.66, -2.09, 0.0, 10.33, 13.05, 13.76, 13.02, 12.65, 12.65, 8.62, 8.62, 9.17, 8.62, 8.86, 8.86, 8.25, 8.25, 8.61, 8.61, 8.33, 8.33, 8.74, 8.74, 8.74, 8.51, 9.61, 9.61, 10.22, 10.68, 11.22, 10.92, 11.38, 11.83, 11.94, 11.53, 11.25, 11.3, 11.52, 11.64, 10.77, 9.8, 9.8, 9.48, 10.37, 10.41, 11.87, 11.87, 10.8, 10.8, 11.62, 11.62, 10.0, 12.07, 12.07, 10.28, 9.39, 9.33, 7.27, 9.2, 11.18, -0.0, -0.0, -0.0, -0.0, -0.0, -0.0, -0.0, -0.0, 11.18, 11.18, 11.18, 12.07, 11.87, 10.04, 5.8, 6.2, 12.52, 0.0, 0.0, 6.2, 13.19, 13.32, 10.3, 6.4, 0.0, -13.14, 0.0, 10.41, 7.6, 3.96, 2.23, 0.0, -1.71, -4.1, -6.0, -7.11, -7.98, -4.42, -2.15, -2.0, 0.0, 2.05, 8.93, 10.87, 13.05, 13.76, 13.76, 8.83, 8.83, 9.17, 8.62, 8.86, 8.86, 8.86, 8.25, 8.61, 8.61, 8.61, 8.33, 8.33, 8.74, 8.74, 8.51, 9.17, 9.61, 10.22, 9.94, 10.92, 10.92, 10.61, 10.61, 11.06, 10.75, 11.25, 10.75, 10.43, 11.03, 10.77, 9.31, 8.87, 8.38, 10.37, 10.41, 10.41, 10.41, 8.53, 8.53, 8.53, 10.4, 10.4, 9.6, 7.9, 11.62, 11.18, 9.2, 7.27, 11.18, -0.0, -0.0, -0.0, -0.0, -0.0, -0.0, -0.0, -0.0, -0.0, -0.0, 10.73, 11.18, 12.07, 11.62, 12.07, 8.85, 6.0, 14.3, 0.0, 0.0, 0.0, 9.48, 15.93, 16.66, 14.18, 13.59, 0.0, -6.47, 0.0, 7.47, 10.81, 2.89, 0.0, -3.44, -6.97, -10.12, -8.66, -6.4, -3.69, -1.78, -3.07, -1.94, 0.0, 6.69, 8.43, 11.16, 13.39, 13.39, 8.83, 8.83, 8.83, 8.62, 8.62, 8.86, 8.86, 8.25, 8.03, 8.39, 8.61, 8.33, 8.33, 8.74, 8.74, 9.17, 8.93, 9.61, 10.22, 10.22, 10.47, 10.18, 10.61, 10.11, 10.27, 10.27, 9.92, 9.87, 10.12, 10.43, 10.43, 9.31, 9.16, 8.66, 9.48, 9.17, 8.85, 8.85, 8.85, 5.4, 5.4, 8.53, 8.22, 10.0, 7.59, 0.0, 8.53, 7.59, 7.27, 11.18, -0.0, -0.0, -0.0, -0.0, -0.0, -0.0, -0.0, -0.0, 4.8, 7.9, 11.18, 11.62, 12.07, 11.62, 12.07, 11.62, 11.62, -12.96, 0.0, 3.25, 2.97, 0.0, 14.84, 22.8, 20.77, 16.24, 12.45, 3.58, -3.24, 0.0, 7.69, 6.08, 4.5, 4.52, 7.69, 10.12, 4.52, 0.0, 0.0, 0.0, -2.43, -2.09, 0.0, 1.94, 6.34, 7.98, 10.87, 10.87, 8.59, 8.59, 8.83, 8.29, 8.62, 8.62, 8.62, 8.03, 8.03, 8.39, 8.39, 8.61, 8.33, 8.33, 9.42, 9.17, 8.93, 8.93, 10.22, 9.94, 9.67, 9.67, 10.11, 9.82, 10.27, 9.73, 9.34, 8.41, 10.18, 9.21, 10.12, 8.58, 9.16, 8.66, 9.8, 9.48, 7.19, 7.19, 3.96, 5.6, 5.4, 5.4, 5.2, 8.22, 7.9, 5.0, 7.9, 4.8, 10.73, -0.0, -0.0, -0.0, -0.0, -0.0, -0.0, -0.0, -0.0, -0.0, 4.8, 4.6, 8.53, 11.62, 11.62, 11.18, 8.22, 7.9, 7.27, 0.0, 0.0, 3.82, 0.0, 10.73, 0.0, 18.21, 28.96, 19.23, 12.27, 9.3, 9.8, 14.3, 14.08, 13.58, 14.4, 15.09, 15.59, 15.83, 14.38, 11.8, 10.12, 9.8, 4.38, 0.0, -2.09, 0.0, 3.9, 6.16, 7.98, 7.98, 8.06, 8.06, 8.59, 8.29, 8.62, 8.62, 8.62, 8.03, 8.03, 8.39, 8.39, 8.39, 9.0, 8.33, 9.42, 9.17, 9.17, 8.93, 8.93, 9.52, 9.67, 9.67, 9.39, 9.82, 9.27, 8.85, 8.85, 8.41, 7.95, 9.73, 8.05, 8.31, 8.87, 8.66, 8.31, 8.31, 6.0, 6.0, 4.1, 3.96, 3.96, 5.6, 5.4, 5.2, 5.0, 5.0, 5.0, 7.59, 10.73, -0.0, -0.0, -0.0, -0.0, -0.0, -0.0, -0.0, -0.0, 4.8, 4.6, 4.8, 7.59, 9.6, 11.62, 10.73, 11.18, 0.0, 7.59, 10.28, 10.4, 5.8, 12.07, -0.0, 0.0, 11.38, 26.72, 23.75, 17.02, 14.75, 13.44, 14.6, 16.09, 16.94, 17.84, 17.88, 16.99, 16.51, 15.74, 13.59, 10.12, 11.16, 12.3, 7.44, 0.0, 0.0, 0.0, 4.81, 6.8, 6.8, 8.06, 8.06, 8.06, 8.06, 8.29, 8.62, 8.62, 8.03, 8.03, 8.03, 8.39, 8.39, 8.39, 9.0, 8.77, 9.17, 8.93, 8.93, 8.93, 9.25, 9.25, 9.39, 8.83, 9.27, 8.99, 8.85, 7.93, 8.41, 7.92, 7.93, 8.05, 7.79, 8.59, 8.66, 7.13, 5.15, 6.2, 6.2, 3.25, 4.1, 4.1, 5.6, 0.0, 0.0, 5.2, 5.0, 5.0, 7.59, 10.73, -0.0, -0.0, -0.0, -0.0, -0.0, -0.0, -0.0, 4.6, 4.4, 4.6, 4.8, 8.85, 7.9, 7.9, 7.9, 7.27, 10.73, 10.73, 10.73, 11.62, 12.52, 8.85, 5.6, 12.52, 9.73, 18.7, 25.01, 21.9, 17.19, 15.24, 16.54, 16.82, 16.99, 16.99, 16.95, 16.95, 16.07, 15.97, 14.95, 11.9, 9.48, 11.87, 12.14, 10.41, 0.0, 0.0, 4.05, 6.8, 6.8, 8.06, 8.06, 8.06, 8.06, 8.06, 8.62, 8.62, 8.03, 8.03, 8.03, 8.39, 8.39, 8.39, 9.0, 8.77, 8.77, 8.53, 8.93, 8.93, 8.93, 8.68, 8.83, 8.83, 9.27, 8.4, 8.18, 7.93, 7.68, 7.68, 7.93, 7.58, 8.05, 7.44, 7.44, 6.9, 5.15, 5.15, 3.36, 3.25, 4.24, 4.24, 0.0, 0.0, 0.0, 3.82, 3.68, 3.53, 0.0, 11.18, -0.0, -0.0, -0.0, -0.0, -0.0, -0.0, -0.0, 4.4, 4.4, 3.11, 3.25, 3.11, 5.2, 7.59, 7.9, 10.0, 11.18, 10.73, 11.18, 11.18, 12.07, 12.52, 13.86, 14.3, 14.3, 18.16, 21.17, 19.95, 17.32, 18.39, 18.1, 17.4, 16.95, 15.49, 15.05, 15.61, 14.75, 14.75, 14.55, 13.41, 8.85, 11.2, 12.27, 12.52, 11.2, 2.13, 0.0, 4.66, 4.66, 7.84, 7.84, 8.06, 8.06, 8.06, 8.39, 8.62, 8.03, 8.03, 8.03, 8.03, 8.39, 8.39, 8.39, 8.77, 8.77, 8.53, 8.53, 8.93, 8.93, 8.68, 8.83, 8.22, 8.4, 8.4, 8.18, 7.21, 7.68, 8.2, 7.93, 7.58, 8.31, 7.69, 6.0, 6.0, 4.24, 4.98, 2.63, 3.25, 3.25, 0.0, 0.0, 0.0, 0.0, 3.82, 2.93, 0.0, 0.0, -0.0, -0.0, -0.0, -0.0, -0.0, -0.0, -0.0, -0.0, 4.4, 4.4, 3.11, 3.25, 2.49, 4.96, 7.59, 7.27, 9.2, 11.18, 10.28, 10.73, 11.18, 0.0, 12.96, 12.96, 15.65, 16.99, 19.22, 17.43, 17.37, 18.8, 20.63, 21.74, 20.12, 16.48, 14.07, 12.9, 13.41, 12.96, 12.83, 11.87, 10.41, 12.96, 11.6, 12.58, 12.96, 12.96, 10.01, 2.54, 1.96, 1.96, 7.84, 7.84, 8.06, 8.06, 8.06, 8.39, 8.62, 8.62, 8.03, 8.03, 8.03, 8.39, 8.39, 8.39, 8.39, 8.77, 8.53, 8.53, 8.53, 8.93, 8.68, 7.82, 8.22, 7.98, 7.73, 7.43, 7.21, 7.68, 7.36, 7.93, 7.58, 7.1, 6.4, 5.46, 3.81, 3.68, 2.2, 2.63, 3.25, 3.25, 0.0, 0.0, 0.0, 0.0, 2.71, 2.93, 2.93, 0.0, -5.2, -0.0, -0.0, -0.0, -0.0, -0.0, -0.0, 4.4, 4.4, 4.2, 3.11, 3.11, 2.39, 2.28, 7.27, 6.95, 10.73, 11.18, 9.83, 10.28, 10.73, 10.73, 11.62, 12.96, 11.06, 17.43, 20.72, 17.81, 12.98, 16.27, 21.2, 21.49, 19.08, 17.35, 15.2, 12.96, 12.07, 12.83, 12.89, 12.3, 12.04, 12.96, 11.6, 12.72, 13.15, 13.41, 12.96, 9.17, 2.63, 2.2, 7.84, 7.84, 7.84, 8.06, 8.06, 8.06, 8.39, 8.39, 8.03, 8.03, 8.03, 7.82, 8.16, 8.16, 8.39, 8.53, 8.53, 8.53, 8.53, 8.93, 8.68, 8.05, 8.22, 7.32, 6.99, 7.21, 6.4, 6.85, 7.36, 7.93, 7.58, 6.4, 5.63, 3.93, 3.36, 1.96, 2.2, 2.63, 2.63, 0.0, 0.0, 0.0, 0.0, 0.0, 2.71, 4.48, 3.82, 12.07, -5.2, -0.0, -0.0, -0.0, -0.0, -0.0, -0.0, 3.11, 4.2, 2.97, 2.97, 2.39, 2.39, 2.28, 4.8, 6.64, 9.83, 10.73, 10.73, 10.28, 10.73, 11.18, 11.18, 12.96, 14.75, 17.43, 24.02, 22.8, 13.19, 11.44, 15.74, 17.13, 15.46, 15.08, 15.2, 14.75, 13.75, 13.01, 13.44, 13.32, 12.89, 13.23, 13.41, 13.15, 13.15, 13.15, 13.41, 12.71, 10.73, 2.63, 7.84, 7.84, 7.84, 7.84, 8.06, 8.06, 8.39, 8.39, 7.82, 7.82, 7.82, 7.82, 8.39, 8.39, 8.39, 8.39, 8.77, 8.53, 8.53, 8.29, 8.05, 7.82, 7.54, 7.32, 6.99, 7.21, 6.4, 6.85, 7.36, 6.4, 6.95, 6.4, 5.02, 3.47, 3.47, 1.77, 0.0, 2.63, 2.63, 0.0, 0.0, 0.0, 0.0, 2.93, 5.8, 2.82, 0.0, -0.0, -0.0, -5.0, -5.0, -4.8, -0.0, -0.0, -0.0, 4.4, 4.2, 2.83, 2.97, 2.28, 2.39, 2.28, 1.84, 4.4, 7.27, 9.2, 9.83, 10.28, 7.59, -0.0, -0.0, 11.62, 0.0, 11.06, 19.67, 24.65, 24.14, 13.39, 11.29, 11.35, 12.56, 13.41, 13.41, 13.34, 13.53, 13.96, 14.03, 14.4, 14.16, 13.72, 13.86, 13.67, 13.15, 13.32, 12.72, 13.23, 12.3, 10.73, 7.84, 7.84, 7.84, 7.84, 7.84, 7.84, 8.39, 8.39, 7.82, 7.82, 7.82, 8.03, 8.03, 8.39, 8.39, 8.39, 8.39, 8.53, 8.53, 8.29, 7.82, 7.15, 7.32, 6.6, 6.99, 6.4, 6.4, 6.85, 6.4, 6.4, 5.81, 5.63, 4.52, 3.1, 1.58, 1.77, 0.0, 2.28, 0.0, 0.0, 0.0, 0.0, 0.0, 3.04, 3.04, 0.0, 11.62, -0.0, -0.0, -7.59, -7.59, -4.6, -0.0, -0.0, -0.0, -0.0, 4.2, 2.83, 2.83, 2.28, -0.0, -0.0, -0.0, 4.4, 4.4, 4.6, 8.8, 7.59, -0.0, -0.0, -0.0, 11.62, 0.0, 0.0, 13.99, 19.51, 28.84, 27.27, 16.6, 12.87, 14.75, 14.55, 14.84, 15.61, 15.61, 14.95, 14.68, 14.66, 14.75, 14.3, 14.3, 14.16, 13.32, 13.15, 11.99, 11.92, 11.6, 11.6, 7.84, 7.84, 7.84, 7.84, 7.84, 7.84, 8.39, 8.39, 7.82, 7.82, 8.03, 8.03, 8.03, 8.39, 8.39, 8.39, 8.39, 8.53, 8.53, 7.67, 7.82, 7.15, 7.32, 6.6, 6.99, 6.18, 6.4, 6.85, 5.92, 6.4, 5.31, 5.31, 4.11, 2.81, 1.38, 1.58, 2.02, 2.35, 0.0, 0.0, 0.0, 0.0, 0.0, 0.0, 0.0, 0.0, 12.07, 10.73, -10.28, -10.28, -10.28, -6.95, -0.0, -0.0, -0.0, -0.0, 2.83, 2.83, 2.83, -0.0, -0.0, -0.0, -0.0, -0.0, 4.4, 4.4, 4.6, 4.6, -0.0, -0.0, -0.0, 11.18, 0.0, 0.0, 0.0, 0.0, 21.9, 30.11, 27.62, 19.92, 16.3, 15.63, 16.64, 17.39, 16.85, 16.31, 14.66, 14.3, 14.75, 14.22, 14.22, 14.03, 13.15, 12.25, 10.12, 11.12, 11.12, 11.12, 7.62, 7.62, 7.84, 7.84, 7.84, 7.84, 8.39, 8.39, 7.82, 7.82, 8.03, 8.03, 8.03, 8.03, 8.39, 8.39, 8.16, 8.16, 8.53, 7.45, 7.82, 6.94, 6.6, 6.6, 6.18, 6.18, 6.4, 5.5, 5.92, 5.92, 4.89, 4.89, 3.76, 3.76, 2.72, 1.58, 2.02, 2.35, 2.35, 0.0, 0.0, 0.0, 0.0, 0.0, 0.0, 0.0, 12.52, -11.62, -10.73, -10.28, -9.83, 9.83, -0.0, -0.0, -4.2, -0.0, -0.0, -0.0, -0.0, -0.0, -0.0, -0.0, -0.0, -0.0, -0.0, 4.4, 4.6, 4.8, -0.0, -0.0, 7.9, 10.73, 0.0, 4.1, 3.25, 4.81, 17.88, 23.23, 28.19, 22.34, 19.31, 19.47, 21.33, 20.25, 18.66, 16.61, 15.58, 14.75, 14.22, 14.03, 13.53, 13.27, 12.66, 9.48, 9.17, 9.17, 9.17, 9.17, 7.62, 7.62, 7.62, 7.84, 7.84, 7.84, 7.84, 8.16, 7.82, 7.82, 7.82, 7.82, 8.03, 7.82, 8.16, 8.16, 8.16, 7.93, 8.29, 7.45, 6.94, 6.94, 6.6, 6.6, 5.81, 5.99, 5.99, 5.5, 5.5, 5.92, 4.89, 4.89, 3.76, 3.76, 2.56, 3.1, 1.77, 2.02, 2.02, 0.0, 0.0, 0.0, 0.0, 0.0, 0.0, 0.0, 0.0, -12.07, -11.62, -11.18, 10.28, 9.83, -0.0, -0.0, -0.0, -0.0, -0.0, -0.0, -0.0, -0.0, -0.0, -0.0, -0.0, -0.0, -0.0, 4.4, 4.4, 4.2, 4.6, -0.0, -0.0, 10.28, 7.9, 8.85, 11.16, 14.3, 16.09, 18.14, 21.84, 22.25, 21.84, 22.73, 22.44, 22.08, 19.08, 17.48, 16.82, 16.09, 15.12, 13.53, 13.39, 10.87, 10.12, 7.78, 5.8, 7.82, 7.82, 7.82, 7.62, 7.62, 7.62, 7.62, 7.84, 7.62, 7.84, 8.16, 7.6, 7.82, 7.82, 7.82, 7.82, 7.82, 8.16, 7.93, 7.93, 7.93, 8.06, 7.45, 7.15, 6.24, 6.24, 5.81, 5.63, 5.99, 5.14, 5.14, 5.5, 5.5, 4.52, 4.52, 3.47, 3.76, 3.76, 2.81, 1.77, 1.77, 1.77, 0.0, 0.0, 0.0, 0.0, 0.0, 0.0, -5.6, -8.53, -8.53, -11.62, -11.62, 11.18, 10.73, -0.0, -0.0, -0.0, -2.83, -0.0, -0.0, -0.0, -0.0, -0.0, -0.0, -0.0, -0.0, 1.75, -0.0, 4.4, 4.0, -0.0, -0.0, -0.0, 10.73, 11.62, 12.52, 13.41, 13.15, 14.9, 16.09, 17.46, 15.99, 18.85, 24.87, 25.89, 21.25, 20.05, 18.85, 18.28, 17.43, 15.39, 14.18, 11.99, 10.35, 8.85, 3.04, 2.45, 5.4, 5.4, 5.4, 7.62, 7.62, 7.62, 7.62, 7.62, 7.62, 7.62, 7.84, 7.6, 7.6, 7.6, 7.6, 7.6, 7.6, 7.6, 7.93, 7.93, 7.71, 8.06, 7.45, 7.15, 6.24, 6.05, 5.63, 5.63, 5.63, 5.14, 5.14, 5.5, 5.5, 4.52, 4.52, 3.47, 3.47, 3.76, 2.81, 3.1, 1.58, 1.77, 0.0, 0.0, 0.0, 0.0, 0.0, -4.1, -5.6, -5.4, -8.53, -11.62, -11.62, 11.18, 10.73, -0.0, -0.0, -3.11, -3.11, -0.0, -0.0, -0.0, -0.0, -0.0, -0.0, -0.0, -0.0, -0.0, -0.0, -0.0, -0.0, -0.0, -0.0, -0.0, 7.9, 10.4, 12.52, 12.96, 13.41, 14.3, 15.2, 15.27, 11.7, 13.28, 22.83, 26.29, 23.59, 21.3, 19.67, 17.88, 15.46, 14.47, 12.04, 11.62, 10.73, 9.66, 5.4, 1.98, 5.4, 5.4, 5.4, 7.62, 7.62, 7.62, 7.39, 7.62, 7.62, 7.62, 7.62, 7.38, 7.6, 7.6, 7.6, 7.6, 7.6, 7.6, 7.71, 7.71, 7.71, 8.06, 7.45, 7.23, 6.24, 6.05, 5.63, 5.63, 5.63, 5.14, 5.14, 5.14, 5.5, 4.52, 4.52, 3.47, 3.47, 2.56, 2.81, 1.42, 1.58, 1.53, 0.0, 0.0, 0.0, 0.0, 0.0, 0.0, 0.0, 0.0, -8.53, -11.62, -11.62, 11.18, 11.18, -0.0, -0.0, -3.25, -3.11, -0.0, -0.0, -0.0, -0.0, -0.0, -0.0, -0.0, -0.0, -0.0, -0.0, -0.0, -0.0, -0.0, -0.0, -0.0, 7.59, 8.22, 12.07, 12.52, 13.41, 13.86, 14.3, 12.65, 11.06, 12.92, 17.58, 21.68, 22.14, 23.99, 21.17, 16.9, 12.58, 12.83, 12.35, 11.62, 10.35, 9.97, 6.71, 3.53, 4.8, 4.8, 4.8, 7.39, 7.39, 7.39, 7.39, 7.39, 7.39, 7.39, 7.62, 7.38, 7.38, 7.38, 7.38, 7.38, 7.38, 7.38, 7.71, 7.71, 7.71, 8.06, 7.23, 6.6, 6.05, 6.05, 5.63, 5.63, 5.63, 5.14, 5.14, 5.14, 5.14, 4.52, 4.66, 3.58, 3.58, 2.56, 2.56, 1.42, 1.38, 1.53, 1.48, 0.0, 0.0, 0.0, 0.0, 0.0, 0.0, 0.0, -8.53, -8.22, -11.62, 11.18, 11.18, 11.18, -0.0, -3.25, -3.25, -3.11, -0.0, -0.0, -0.0, -0.0, -0.0, -0.0, -0.0, -0.0, -0.0, -0.0, -0.0, -0.0, -0.0, -0.0, -0.0, 11.18, 12.07, 12.52, 12.96, 13.41, 12.72, 12.79, 11.8, 13.42, 12.92, 14.22, 18.84, 25.73, 22.24, 12.72, 8.82, 10.79, 12.39, 11.95, 9.97, 8.38, 7.59, 5.29, 4.4, 4.4, 4.4, 7.39, 7.39, 7.39, 7.39, 7.39, 7.39, 7.39, 7.39, 6.87, 7.38, 7.38, 7.38, 7.38, 7.38, 7.38, 7.93, 7.71, 7.71, 7.23, 7.23, 6.4, 6.05, 6.05, 5.63, 5.63, 5.63, 5.63, 5.14, 5.14, 5.14, 5.3, 4.66, 4.66, 3.58, 2.35, 2.56, 2.56, 1.38, 1.38, 1.48, 0.0, 0.0, 0.0, 0.0, 0.0, 0.0, 0.0, 0.0, 0.0, 11.62, 11.62, 11.18, 11.18, -0.0, -4.8, -3.25, -4.4, -0.0, -0.0, -0.0, -0.0, -0.0, -0.0, -0.0, -0.0, -0.0, -0.0, -0.0, -0.0, -0.0, -0.0, 4.4, 9.83, 7.9, 12.07, 12.52, 12.96, 11.6, 12.39, 12.27, 10.43, 10.43, 9.39, 16.1, 27.06, 19.55, 14.99, 8.58, 7.59, 9.58, 11.18, 10.68, 7.9, 6.7, 6.42, 5.06, 5.06, 5.06, 7.39, 7.17, 7.17, 7.17, 7.17, 7.17, 7.17, 6.87, 6.87, 7.16, 7.16, 7.16, 7.38, 7.6, 7.6, 7.71, 7.71, 7.48, 7.23, 7.01, 6.4, 6.73, 6.05, 5.63, 5.63, 5.63, 5.63, 5.99, 5.3, 5.3, 5.3, 4.66, 4.66, 3.58, 2.35, 2.35, 2.56, 2.48, 1.38, 1.48, 1.48, 0.0, 0.0, 0.0, 0.0, 0.0, 0.0, 0.0, 0.0, 11.62, 11.62, 11.62, 11.18, -0.0, -0.0, -4.6, -6.95, -4.2, -0.0, -0.0, -0.0, -0.0, -0.0, -0.0, -1.49, -1.73, -4.2, -4.2, -0.0, -0.0, -0.0, -0.0, -0.0, -0.0, 11.18, 11.62, 12.52, 12.96, 13.41, 13.86, 12.79, 11.9, 10.12, 16.99, 26.83, 21.48, 17.2, 11.21, 6.71, 5.75, 8.73, 9.7, 9.08, 7.9, 4.8, 9.83, 9.83, 9.83, 6.66, 6.66, 6.66, 6.66, 6.66, 6.66, 6.66, 6.66, 6.66, 7.16, 7.38, 7.38, 7.6, 7.38, 7.38, 7.71, 7.48, 7.48, 7.01, 7.01, 6.4, 6.73, 6.05, 5.63, 5.63, 5.63, 5.63, 6.18, 6.18, 5.3, 5.3, 5.67, 4.66, 3.58, 2.35, 2.35, 2.48, 2.48, 2.63, 1.33, 1.43, 1.61, 0.0, 0.0, 0.0, 0.0, 0.0, 0.0, 0.0, 11.62, 11.62, 11.62, -0.0, -0.0, -0.0, -0.0, -6.95, -6.64, -4.0, -0.0, -0.0, -0.0, -0.0, -0.0, -1.84, -1.84, -6.64, -6.64, -4.4, -4.2, -0.0, -0.0, 4.8, 4.6, -0.0, -0.0, 12.07, 12.52, 12.96, 12.96, 13.41, 12.39, 13.99, 27.13, 27.39, 22.93, 17.78, 13.7, 7.24, 6.21, 7.26, 9.96, 9.3, 11.62, -7.59, -0.0, -0.0, -0.0, 6.45, 6.45, 6.45, 6.45, 6.66, 6.66, 6.66, 6.66, 6.87, 7.38, 7.38, 7.38, 7.38, 7.38, 7.38, 7.48, 7.48, 7.48, 7.01, 7.01, 6.4, 6.73, 6.05, 6.4, 5.63, 5.81, 5.81, 6.18, 6.18, 6.18, 5.67, 5.67, 5.67, 4.52, 3.47, 3.47, 2.28, 2.48, 2.4, 2.63, 2.81, 1.61, 1.77, 0.0, 0.0, 0.0, 0.0, 0.0, 0.0, 12.07, 12.07, 12.07, -0.0, -0.0, 4.8, -0.0, -3.11, -6.64, -6.32, -4.0, -0.0, -0.0, -0.0, -0.0, -2.4, -2.4, -4.22, -6.32, -9.2, -7.27, -0.0, 10.28, 10.28, 9.2, 4.6, -0.0, 11.62, 0.0, 0.0, 12.52, 12.96, 13.86, 18.33, 26.37, 26.82, 21.9, 17.35, 12.72, 8.53, 4.32, 5.75, 7.9, 11.18, -10.6, -7.59, 7.27, 7.27, 7.27, 6.45, 6.45, 6.45, 6.45, 6.45, 6.66, 6.66, 6.87, 6.87, 7.16, 7.16, 7.38, 7.16, 7.16, 7.16, 7.48, 7.48, 7.48, 7.23, 7.01, 7.59, 6.94, 6.94, 6.6, 6.6, 5.81, 5.99, 6.37, 6.18, 6.18, 6.6, 6.6, 5.5, 4.52, 4.52, 3.36, 3.36, 3.65, 3.53, 3.85, 2.54, 2.81, 3.04, 1.77, 2.45, 0.0, 0.0, 0.0, 0.0, 12.07, 12.07, 12.07, -0.0, -0.0, 4.8, 4.6, -0.0, -2.97, -4.96, -4.0, -0.0, -0.0, -0.0, -0.0, -0.0, -2.54, -3.6, -7.2, -10.28, -10.73, -10.73, 10.73, 10.73, 10.28, 6.95, 6.95, 10.73, 0.0, -8.85, -8.85, 0.0, 13.41, 13.28, 21.59, 26.74, 20.56, 16.54, 11.21, 6.44, 4.15, 5.75, 6.45, -11.62, -11.18, 11.18, 9.83, 9.83, 9.83, 6.45, 6.45, 6.45, 6.45, 6.66, 6.66, 6.66, 6.66, 6.87, 7.16, 7.16, 7.16, 7.16, 7.16, 7.48, 7.48, 7.48, 7.82, 7.23, 7.23, 7.59, 6.94, 6.94, 6.8, 6.8, 6.8, 6.8, 6.99, 6.18, 6.18, 6.6, 6.4, 6.4, 5.5, 4.52, 4.38, 4.38, 3.25, 3.53, 3.41, 3.73, 4.1, 4.39, 3.44, 3.96, 2.93, 3.82, 5.4, 8.53, 12.07, 12.07, 12.07, 8.22, 7.9, 4.8, 7.27, 3.11, -0.0, -2.97, -4.0, -0.0, -0.0, -0.0, -0.0, -0.0, -0.0, -0.0, -0.0, -6.01, -10.73, -10.73, 10.73, 10.73, 10.28, 10.28, 10.28, 10.28, 0.0, 0.0, -8.53, -8.85, -14.3, -16.96, -9.4, 20.23, 24.59, 17.88, 14.3, 6.2, 0.0, 0.0, -2.82, -5.2, 0.0, 11.18, 4.6, 4.6, 4.6, 6.45, 6.45, 6.45, 6.45, 6.45, 6.45, 6.45, 6.66, 6.95, 6.95, 6.95, 6.95, 7.16, 7.16, 7.48, 7.48, 7.48, 8.06, 7.45, 7.45, 7.82, 7.15, 7.15, 6.8, 6.8, 6.8, 6.8, 6.99, 6.99, 7.43, 7.21, 6.4, 6.4, 6.4, 5.33, 5.33, 4.38, 4.24, 4.58, 4.43, 4.81, 5.27, 5.6, 4.93, 5.6, 4.65, 6.7, 8.53, 10.8, 12.07, 12.07, 11.62, 7.9, 7.9, 4.8, 4.6, 6.95, -0.0, -0.0, -4.0, -0.0, -0.0, -0.0, -0.0, -0.0, -0.0, -0.0, -0.0, -0.0, -10.28, -10.28, 10.73, 10.28, 9.83, 9.83, 9.83, 9.83, 10.28, 7.59, 11.62, 12.96, -13.86, -15.65, -19.22, 25.93, 27.72, 19.22, 12.01, 0.0, -4.15, -4.32, -4.32, 0.0, 8.22, 6.2, 5.0, 5.0, 5.0, 6.45, 6.45, 6.45, 6.45, 6.45, 6.45, 6.45, 6.45, 6.73, 6.95, 6.95, 7.16, 7.16, 7.16, 7.71, 7.71, 7.71, 8.06, 7.45, 7.45, 7.82, 7.82, 7.15, 7.54, 6.6, 6.8, 6.99, 6.99, 6.78, 7.21, 7.21, 7.21, 7.21, 6.98, 6.2, 6.2, 5.16, 5.16, 5.55, 5.36, 5.8, 5.8, 6.08, 5.6, 6.94, 6.44, 8.53, 10.04, 11.45, 11.45, 12.07, 11.62, 11.18, 7.9, 7.59, 9.2, 6.95, 4.4, -0.0, -4.0, -0.0, -0.0, -0.0, -0.0, -0.0, -0.0, -0.0, -0.0, -0.0, 10.28, 10.28, 10.28, 0.0, 9.39, 0.0, 0.0, 6.64, 8.4, 10.28, 11.62, 12.52, 13.41, -13.19, -17.43, 23.69, 27.72, 21.01, 18.33, 16.09, -4.38, -2.54, -2.54, 4.1, 9.17, 4.65, 4.65, 4.65, 4.65, 6.25, 6.25, 6.25, 6.45, 6.45, 6.45, 6.45, 6.45, 6.73, 6.95, 6.95, 7.16, 7.16, 7.71, 7.71, 7.71, 7.71, 8.06, 8.06, 7.45, 7.82, 7.59, 7.82, 7.54, 7.32, 7.32, 7.73, 7.5, 7.5, 7.93, 7.93, 7.21, 7.68, 7.44, 7.44, 7.2, 6.42, 6.42, 6.21, 6.21, 6.67, 6.67, 7.19, 7.51, 8.01, 8.85, 8.53, 10.8, 10.8, 11.71, 11.62, 11.18, 11.18, 10.73, 10.73, 9.2, 9.2, 8.8, -0.0, -0.0, -0.0, -0.0, -0.0, -0.0, -0.0, -0.0, -0.0, -0.0, -0.0, 8.94, 9.39, 11.18, 0.0, 0.0, 0.0, 0.0, 6.64, 8.8, 10.28, 11.62, 12.52, 13.41, 0.0, 0.0, 0.0, 26.29, 21.92, 19.67, 17.88, 13.76, 9.66, 11.8, 13.41, 8.05, 5.8, 6.43, 6.43, 6.43, 6.25, 6.25, 6.25, 6.25, 6.25, 6.45, 6.45, 6.73, 6.73, 6.95, 6.95, 7.16, 7.16, 7.71, 7.71, 7.71, 7.71, 8.06, 8.06, 7.45, 7.59, 7.59, 7.82, 8.22, 7.32, 7.73, 7.5, 7.5, 7.93, 7.93, 7.93, 7.93, 8.15, 8.15, 8.15, 7.89, 7.2, 6.96, 6.96, 6.96, 7.43, 7.43, 7.96, 8.54, 9.5, 9.62, 10.04, 10.8, 11.21, 11.84, 11.28, 11.18, 11.18, 10.73, 10.28, 10.28, 10.28, 8.8, 6.64, -0.0, -0.0, -0.0, -0.0, -0.0, -0.0, -0.0, -0.0, -0.0, -0.0, 6.32, 9.39, 11.18, 0.0, 0.0, 0.0, 0.0, 0.0, 9.83, 10.28, 10.73, 12.07, 0.0, 0.0, 0.0, 14.86, 26.89, 21.9, 20.56, 18.78, 18.78, 17.7, 16.54, 12.65, 8.3, 7.54, 8.44, 8.44, 8.44, 6.25, 6.25, 6.25, 6.25, 6.25, 6.25, 6.25, 6.73, 6.73, 6.95, 6.95, 7.16, 7.48, 7.48, 7.48, 7.48, 7.48, 7.82, 7.82, 8.18, 7.59, 7.59, 7.98, 7.98, 7.32, 7.5, 7.5, 7.5, 7.93, 7.93, 8.58, 8.78, 8.78, 8.78, 7.89, 7.89, 8.38, 8.1, 8.1, 8.1, 8.1, 8.61, 8.61, 8.85, 10.01, 10.19, 10.48, 11.09, 11.45, 11.46, 11.4, 10.84, 11.18, 10.73, 10.73, 10.28, 10.28, 9.83, 9.39, 6.64, -0.0, -0.0, -0.0, -0.0, -0.0, -0.0, -0.0, -0.0, -0.0, 6.32, 9.39, 9.39, 8.4, 11.62, 0.0, 0.0, 0.0, 9.83, 10.28, 10.73, 8.22, 9.17, 6.2, 10.43, 13.28, 24.29, 24.14, 21.01, 20.4, 19.96, 18.76, 16.32, 13.1, 10.12, 9.17, 8.3, 8.3, 8.3, 6.25, 6.25, 6.25, 6.25, 6.25, 6.25, 6.25, 6.73, 6.73, 6.95, 6.95, 7.16, 7.48, 7.48, 7.48, 7.48, 7.48, 7.82, 7.82, 8.18, 7.59, 7.59, 7.98, 7.98, 7.32, 7.5, 7.5, 7.5, 7.93, 7.93, 8.58, 8.78, 8.78, 8.78, 7.89, 7.89, 8.38, 8.1, 8.1, 8.1, 8.1, 8.61, 8.61, 8.85, 10.01, 10.19, 10.48, 11.09, 11.45, 11.46, 11.4, 10.84, 11.18, 10.73, 10.73, 10.28, 10.28, 9.83, 9.39, 6.64, -0.0, -0.0, -0.0, -0.0, -0.0, -0.0, -0.0, -0.0, -0.0, 6.32, 9.39, 9.39, 8.4, 11.62, 0.0, 0.0, 9.83, 9.83, 10.28, 10.73, 8.22, 8.85, 9.48, 11.9, 14.39, 19.84, 23.69, 20.88, 20.12, 19.75, 18.31, 16.88, 14.51, 12.52, 9.96, 9.96, 9.96, 9.96]}, {"header": {"dx": 0.06612293990616946, "dy": 0.0552356325346848, "nx": 98, "ny": 59, "la1": 35.046912555036876, "la2": 31.78801023549047, "lo1": -121.43107172385933, "lo2": -114.95102361305473, "refTime": "2026041805", "parameterCategory": 1, "parameterNumber": 3}, "data": [-14.56, -14.15, -14.56, -13.88, -13.53, -12.92, -12.22, -11.94, -11.25, -10.96, -10.12, -8.73, -7.69, -5.8, -8.53, -11.62, -11.62, -11.18, -11.62, -12.52, 0.0, 0.0, 2.82, 2.71, 2.71, 2.28, 1.98, 3.96, 5.4, 5.99, 7.28, 7.78, 7.51, 6.71, 6.17, 5.9, 4.98, 4.2, 1.54, 0.0, -1.93, -5.0, -6.97, -7.51, -9.77, -10.65, -11.85, -13.89, -9.89, -6.73, -4.52, 6.6, 10.75, 9.77, 11.06, 11.06, 10.02, 9.09, 7.0, 6.35, 4.95, 4.95, 3.69, 2.98, 6.8, 8.05, 8.28, 11.38, 16.09, 16.09, 16.09, 15.65, 11.06, 4.95, 4.95, 11.06, 14.75, 14.3, 10.43, 10.43, 14.3, 13.41, 0.0, -0.0, -8.53, -9.67, -11.71, -11.18, -11.18, -10.6, -11.6, -12.42, -13.19, -13.2, -13.56, -12.79, -11.5, -9.17, -14.56, -14.56, -14.56, -13.88, -13.95, -13.26, -12.22, -11.94, -11.68, -10.96, -10.36, -10.43, -7.44, -6.94, -5.8, -8.53, -10.73, -12.07, -12.07, -11.62, -13.41, -9.17, 0.0, 0.0, 2.1, 0.0, 2.82, 2.93, 5.4, 7.51, 9.16, 8.87, 8.85, 6.95, 5.15, 4.44, 3.6, 2.83, 1.33, 0.0, -2.45, -6.0, -7.78, -11.54, -13.59, -16.44, -16.93, -12.35, -7.69, -4.66, 3.58, 10.75, 9.49, 9.73, 10.75, 11.06, 10.02, 8.06, 7.6, 6.35, 5.81, 4.37, 3.69, 5.64, 9.12, 9.77, 10.05, 12.87, 16.09, 16.09, 16.54, 16.09, 13.39, 4.81, 4.81, 4.66, 10.43, 14.3, 10.43, 10.43, 14.3, 13.41, 0.0, -0.0, -8.53, -9.67, -11.71, -11.18, -11.18, -10.6, -11.6, -12.42, -13.19, -13.2, -13.56, -12.79, -11.5, -9.17, -14.56, -14.56, -14.22, -14.3, -14.3, -13.61, -13.01, -12.29, -11.68, -10.96, -10.69, -9.76, -8.31, -5.8, -3.68, -5.2, -8.22, -11.62, -12.07, -12.96, -11.62, -12.52, -11.2, 0.0, 0.0, 2.1, 4.8, 2.6, 3.53, 6.45, 8.18, 9.12, 8.58, 6.71, 3.15, 1.84, 1.26, 0.99, 0.0, -1.91, -5.6, -9.44, -12.64, -15.48, -17.64, -16.15, -12.33, -8.59, -2.89, 3.69, 9.49, 8.43, 8.43, 9.49, 10.43, 10.75, 9.73, 8.29, 6.35, 5.81, 4.5, 4.37, 3.69, 9.12, 12.16, 12.22, 12.02, 12.02, 13.42, 15.61, 16.09, 16.09, 14.84, 8.43, -0.0, -0.0, -0.0, 15.2, 0.0, 0.0, 0.0, 0.0, 0.0, 0.0, -8.22, -10.4, -10.0, -11.18, -10.96, -10.73, -12.73, -14.79, -14.39, -14.23, -14.18, -13.67, -12.04, -10.01, -14.56, -14.56, -14.66, -14.3, -13.96, -14.06, -13.36, -12.63, -12.02, -11.42, -11.17, -10.94, -10.12, -8.85, -6.7, -3.68, -3.68, -10.8, -11.62, -11.71, -10.6, -10.0, -11.18, -11.18, 0.0, 4.1, 4.6, 2.39, 2.39, 0.0, 0.0, 0.0, 0.0, -11.06, -3.96, -2.6, -2.02, -1.76, -2.72, -4.87, -9.61, -12.51, -13.91, -11.16, -8.43, -7.69, -5.15, 0.0, 5.48, 6.6, 7.32, 6.8, 7.59, 10.43, 11.52, 10.43, 8.43, 7.0, 6.35, 4.5, 2.72, 2.98, 5.81, 11.8, 12.65, 11.68, 12.73, 12.52, 13.12, 13.74, 15.77, 15.65, 15.65, 12.27, -0.0, -6.2, -10.43, -15.2, 0.0, -13.86, -11.99, -13.41, -9.17, -11.62, -7.9, -8.22, -12.07, -11.03, -9.58, -12.73, -14.3, -14.75, -14.38, -13.99, -13.41, -13.41, -12.58, -8.85, -14.97, -14.66, -14.66, -13.96, -14.42, -14.42, -13.71, -13.36, -12.4, -11.76, -11.52, -11.35, -10.12, -9.17, -8.53, -8.53, -8.22, -10.04, -11.62, -10.8, -10.79, -8.85, -5.2, -0.0, -0.0, 0.0, 0.0, 0.0, 0.0, 0.0, -7.59, -10.6, -11.62, -12.52, -14.03, -12.27, -10.75, -8.66, -9.66, -11.48, -12.01, -9.12, -2.63, 0.0, 0.0, 0.0, 3.93, 5.63, 5.81, 5.99, 6.6, 7.36, 8.58, 11.8, 11.52, 9.44, 7.54, 7.0, 6.35, 4.0, 1.34, 1.58, 8.58, 13.7, 12.27, 11.7, 12.9, 12.56, 13.92, 15.27, 13.91, 15.99, 18.33, 17.43, 11.06, -4.1, -9.8, -13.57, -12.39, -13.41, -12.3, -12.96, -12.07, -11.18, -10.0, -11.03, -12.07, -9.97, -13.02, -14.3, -14.19, -12.22, -13.19, -13.41, -11.6, -13.41, -11.6, -8.85, -14.97, -14.66, -14.66, -14.42, -14.42, -14.42, -13.71, -13.82, -12.76, -12.52, -12.29, -11.72, -11.44, -9.17, -8.85, -8.53, -9.66, -10.04, -11.84, -11.84, -10.4, -10.35, -9.48, -6.0, -12.52, -12.07, -12.07, -10.04, -10.79, -6.7, -6.95, -10.28, -10.28, -10.73, -12.01, -13.59, -12.56, -11.09, -11.44, -11.17, -8.85, 0.0, 0.0, 0.0, 0.0, 3.58, 7.32, 7.1, 7.1, 7.93, 7.13, 8.31, 9.8, 11.44, 10.43, 7.32, 5.18, 5.18, 2.98, 2.43, 1.25, 4.24, 13.19, 13.03, 12.57, 12.01, 12.33, 11.7, 10.87, 12.88, 9.8, 12.07, 17.39, 18.78, 18.33, 0.0, -9.48, -12.3, -12.96, -9.17, -11.45, -11.4, -11.62, -11.62, -11.28, -11.62, -13.72, -15.91, -16.41, -15.16, -13.39, -13.02, -14.53, -9.17, -7.78, -13.41, -11.12, -8.85, -14.97, -14.66, -15.1, -14.42, -14.42, -14.42, -13.71, -14.19, -13.46, -12.86, -12.29, -11.35, -11.44, -7.19, -9.48, -9.67, -10.8, -11.2, -11.62, -12.07, -11.95, -12.56, -12.98, -12.3, -12.52, -11.62, -11.62, -12.07, -12.27, -10.73, -11.18, -9.83, -9.83, -7.81, -10.27, -12.66, -12.22, -11.99, -9.3, -7.27, 0.0, -12.96, -4.52, -3.69, 0.0, 4.81, 9.35, 9.12, 8.31, 7.13, 8.58, 9.8, 8.94, 9.22, 6.4, 3.81, 3.47, 1.77, 0.0, 0.0, 1.48, 8.05, 13.59, 14.39, 13.23, 11.7, 11.06, 7.98, 7.0, 2.94, 0.0, 0.0, 0.0, 0.0, 0.0, 0.0, 0.0, 0.0, -13.41, -11.99, -12.07, -12.96, -13.86, -14.3, -15.2, -16.99, -18.85, -19.27, -17.57, -16.74, -15.69, -15.93, -15.65, -4.98, -9.48, -12.71, -10.73, -10.12, -14.3, -14.73, -14.42, -14.42, -14.42, -14.42, -14.51, -14.13, -13.46, -13.16, -12.65, -12.17, -12.27, -9.48, -8.31, -8.53, -10.01, -10.73, -11.12, -10.73, -11.2, -12.27, -12.96, -13.86, -13.86, -12.07, -12.07, -12.52, -11.46, -10.96, -10.6, -11.03, -11.18, -9.96, -10.0, -10.6, -10.96, -10.91, -11.2, -8.22, -11.18, -12.07, -13.41, -10.12, 0.0, 11.38, 11.06, 9.35, 8.18, 7.93, 7.82, 8.38, 8.87, 6.88, 5.46, 1.96, 0.0, 0.0, 0.0, 0.0, 4.65, 9.48, 14.75, 13.99, 12.87, 10.19, 6.69, 1.94, 0.0, -2.57, -2.94, -6.81, -11.38, -15.65, -15.2, -14.75, 0.0, 0.0, -12.96, -11.9, -11.06, -14.75, -14.75, -15.65, -17.43, -19.59, -20.23, -19.29, -17.97, -16.15, -15.53, -15.99, -9.48, -5.15, -11.99, -11.87, -10.04, -10.12, -14.73, -14.73, -14.42, -14.42, -14.42, -14.88, -14.51, -14.13, -13.76, -13.54, -13.2, -12.58, -14.84, -12.33, -11.99, -11.6, -11.99, -11.5, -10.37, -10.41, -6.94, -3.96, -4.81, -11.09, -13.23, -12.52, -9.83, -10.73, -11.21, -10.18, -11.51, -12.07, -12.45, -12.0, -11.0, -10.04, -10.58, -10.58, -11.62, -11.18, -11.2, -0.0, -0.0, -0.0, -0.0, 13.86, 7.2, 5.37, 7.2, 8.06, 9.44, 8.44, 8.05, 6.2, 5.46, 1.96, 0.0, 0.0, 0.0, 0.0, 8.85, 15.2, 14.75, 13.99, 9.66, 5.37, 0.0, 0.0, -4.05, -6.6, -9.66, -9.92, -13.23, -15.65, -14.31, -12.79, -9.8, -9.17, -13.86, -12.65, -9.92, -13.19, -14.16, -14.75, -15.99, -16.66, -17.1, -16.05, -15.71, -15.08, -12.96, -11.6, -7.19, -8.38, -13.23, -11.87, -10.04, -9.27, -14.37, -14.73, -14.42, -14.42, -14.42, -14.42, -14.51, -14.13, -13.39, -13.8, -13.81, -13.41, -12.39, -12.37, -14.03, -13.09, -13.15, -13.53, -13.72, -12.79, -12.35, -11.62, -9.17, -9.48, -12.45, -11.84, -9.54, -11.62, -13.15, -11.95, -12.52, -14.22, -13.86, -12.07, -11.62, -11.62, -10.41, -8.94, -11.28, -11.87, -8.53, -0.0, -0.0, -0.0, 0.0, 0.0, -9.48, 0.0, 3.79, 8.68, 9.6, 9.71, 9.42, 8.05, 5.46, 2.35, 0.0, -2.54, 0.0, 11.2, 14.31, 16.22, 16.54, 13.8, 8.28, 3.42, 0.0, 0.0, -2.72, -10.12, -11.8, -12.52, -14.39, -16.09, -15.65, -12.39, -10.73, -10.73, -12.71, -14.75, -13.59, -8.51, -11.7, -13.42, -13.15, -12.72, -12.39, -12.79, -13.28, -12.96, -9.17, -5.6, -8.85, -10.79, -12.96, -12.04, -11.26, -10.19, -14.37, -14.37, -14.73, -14.42, -14.42, -14.42, -14.06, -13.76, -13.76, -13.8, -13.42, -13.03, -13.03, -12.96, -14.99, -14.07, -14.31, -14.11, -14.57, -14.57, -15.49, -15.46, -13.99, -11.62, -11.92, -10.18, -10.08, -9.83, -10.28, -12.52, -11.91, -9.64, -9.83, -9.33, -9.13, -11.28, -11.03, -8.22, -9.67, -11.87, -9.17, -0.0, 0.0, 0.0, 0.0, 0.0, 0.0, 0.0, 5.8, 9.48, 12.27, 12.22, 11.38, 8.93, 3.16, 0.0, 0.0, 0.0, 7.9, 13.41, 17.33, 17.46, 15.49, 14.79, 14.39, 14.3, 13.59, 12.64, 12.65, 0.0, -13.86, -13.19, -11.38, -11.38, -10.75, -13.41, -10.4, -10.35, -13.57, -14.99, -16.09, -14.95, -8.28, -5.37, -5.09, -4.66, -4.81, -4.81, -3.47, 0.0, -0.0, -7.51, -10.41, -11.5, -13.41, -13.96, -12.66, -11.64, -14.37, -14.37, -14.73, -14.73, -14.73, -14.73, -14.37, -14.03, -14.03, -14.03, -14.03, -13.64, -13.42, -13.16, -12.65, -13.19, -12.1, -12.14, -13.09, -13.69, -13.96, -14.36, -13.92, -15.18, -12.72, -11.62, -11.21, -8.41, -10.73, -10.18, -7.9, 0.0, 7.59, 0.0, -9.2, -9.6, -4.8, -0.0, -0.0, 0.0, 8.85, 8.53, 8.22, 0.0, 0.0, 0.0, 0.0, 8.85, 9.17, 9.8, 11.9, 11.7, 13.28, 4.88, 0.0, 0.0, 0.0, 0.0, 11.45, 13.86, 17.79, 17.68, 16.7, 15.97, 16.09, 19.22, 22.05, 21.17, 17.99, 16.48, 13.99, 11.53, 10.43, 6.8, 0.0, -8.22, -11.62, -14.47, -14.84, -15.49, -15.93, -16.09, -14.57, -5.65, -2.66, 0.0, 0.0, 0.0, 0.0, 0.0, 0.0, -11.03, -10.79, -11.18, -12.52, -12.66, -14.4, -13.88, -14.37, -14.37, -14.37, -14.73, -14.73, -14.73, -14.37, -14.4, -14.03, -13.65, -13.65, -13.64, -13.42, -13.1, -13.11, -12.8, -12.35, -12.95, -13.05, -13.23, -13.57, -13.89, -14.19, -12.0, -8.94, -6.2, -4.24, -4.81, -2.93, 0.0, 0.0, 0.0, 3.53, 0.0, 0.0, 7.59, 10.73, 11.18, 11.18, 11.62, 8.22, 8.22, 5.0, 0.0, -10.28, -10.73, -11.62, -12.07, 0.0, 0.0, 0.0, 0.0, 0.0, 0.0, 0.0, -12.96, -14.22, -10.2, 14.39, 12.07, 16.09, 16.22, 17.1, 16.09, 18.03, 19.52, 22.35, 24.29, 20.46, 20.03, 19.17, 14.86, 8.58, 6.45, 0.0, -5.2, -6.6, -15.27, -16.09, -16.54, -15.47, -16.37, -15.93, -15.69, -6.31, -3.09, -2.44, -2.22, -2.28, 0.0, -1.96, -4.32, -9.3, -11.62, -12.39, -13.31, -12.86, -13.86, -14.37, -14.37, -14.73, -14.73, -14.73, -14.73, -14.37, -14.4, -14.4, -14.03, -13.65, -13.27, -13.42, -13.1, -13.46, -13.39, -12.33, -12.78, -13.18, -13.51, -13.13, -12.82, -12.45, -10.75, -7.76, -3.69, -1.68, -1.47, 0.0, 0.0, 0.0, 0.0, 0.0, 0.0, 4.6, 9.6, 9.75, 10.28, 10.28, 10.73, 7.59, 0.0, 0.0, 0.0, -9.83, -10.28, -9.39, -11.18, -11.62, -11.2, -11.2, -11.45, -12.07, 0.0, 0.0, -8.85, -15.65, -19.22, 0.0, 13.86, 13.15, 15.65, 16.54, 16.82, 16.05, 14.79, 14.51, 18.78, 9.6, 16.12, 16.75, 13.96, 6.81, 0.0, -3.68, -10.43, -11.7, -12.33, -14.13, -16.12, -16.99, -16.54, -15.65, -15.12, -13.42, -10.33, -7.04, -5.04, -2.47, -2.34, -1.77, -1.64, -4.32, -8.85, -11.99, -12.72, -12.96, -12.96, -14.64, -14.64, -15.01, -15.01, -15.01, -15.1, -14.73, -14.78, -14.4, -14.03, -13.65, -13.27, -13.39, -13.1, -13.46, -13.82, -12.9, -12.33, -12.33, -12.7, -12.29, -11.38, -11.06, -9.61, -8.05, -5.81, -4.0, -3.58, -2.35, -1.38, -2.45, 0.0, 0.0, 7.27, 9.2, 10.28, 10.18, 9.33, 10.0, 6.95, 0.0, 0.0, -4.4, -6.95, -6.95, -6.95, -9.83, 0.0, 0.0, -7.9, -11.03, -9.3, -7.59, 9.39, 9.83, 0.0, -10.4, -13.86, -18.33, 17.43, 12.04, 12.3, 13.15, 13.57, 13.19, 10.75, -0.0, -0.0, 0.0, 17.99, 14.54, 4.21, 0.0, -4.65, -9.48, -13.76, -14.51, -14.88, -12.01, -9.42, -5.51, -9.42, -14.53, -13.23, -12.96, -14.61, -12.65, -8.93, -5.09, -2.72, -2.4, -3.68, -5.4, -6.44, -8.05, -12.96, -12.83, -12.83, -14.64, -14.64, -15.01, -15.01, -14.61, -15.39, -15.01, -15.16, -14.4, -14.03, -13.65, -14.03, -13.8, -13.46, -13.82, -13.82, -12.85, -12.9, -11.96, -12.33, -11.66, -11.36, -9.73, -8.64, -7.49, -6.02, -5.85, -4.47, -4.47, -2.64, -1.77, 0.0, 3.25, 7.59, 9.2, 9.39, 10.28, 9.97, 7.59, 0.0, 0.0, 0.0, 0.0, 0.0, 0.0, 0.0, 6.95, 10.28, 7.27, 0.0, -5.0, -5.2, 0.0, 5.95, 6.64, 4.4, -3.25, -6.45, 0.0, 15.65, 12.07, 11.62, 11.62, 12.07, 0.0, 0.0, 0.0, -10.75, -0.0, 19.67, 0.0, -3.09, -7.4, -13.28, -14.11, -17.97, -18.65, -15.62, -8.2, 0.0, 5.8, 4.45, 0.0, -6.6, -9.66, -10.96, -13.09, -11.6, -10.12, -7.13, -7.0, -6.43, -6.67, -6.0, -6.67, -10.8, -12.52, -12.52, -14.64, -14.64, -15.01, -14.61, -14.61, -15.39, -15.39, -15.41, -14.78, -14.4, -13.65, -13.8, -13.91, -13.91, -13.82, -13.46, -12.97, -12.85, -11.73, -11.66, -11.66, -10.76, -9.99, -8.88, -7.2, -5.78, -5.41, -4.42, -4.42, -3.62, -1.42, 0.0, 0.0, 0.0, 6.32, 9.39, 9.33, 7.59, 0.0, 0.0, -4.4, 0.0, 0.0, 0.0, 0.0, 0.0, 10.28, 10.28, 9.2, 4.6, 4.6, 4.8, 6.2, 7.59, 5.95, 2.49, 0.0, 0.0, 7.24, 11.6, 12.14, 10.6, 7.59, 4.8, 0.0, 0.0, 0.0, -11.62, -9.8, -17.43, -15.49, -8.2, -12.64, -18.79, -17.7, -18.78, -19.22, -19.67, 0.0, 0.0, 0.0, 5.51, 3.33, 0.0, 0.0, -2.82, -12.07, -12.83, -11.99, -9.8, -8.85, -7.44, -7.82, -7.19, -6.0, -8.53, -11.62, -11.62, -14.88, -14.88, -15.26, -14.61, -14.61, -15.39, -15.39, -15.41, -14.78, -14.4, -14.03, -13.8, -14.18, -13.91, -13.97, -13.11, -13.31, -12.85, -12.01, -10.47, -10.47, -10.76, -9.73, -7.71, -5.78, -4.42, -5.23, -5.09, -4.15, -4.42, -3.52, -2.72, 0.0, 0.0, 2.6, 7.27, 0.0, 0.0, -3.11, -3.11, -4.4, -6.95, -6.95, -7.27, 0.0, 9.2, 10.73, 9.2, 9.2, 7.27, 7.27, 7.27, 7.27, 7.27, 7.27, 4.6, 4.6, 5.52, 7.9, 8.94, 8.53, 6.45, 3.39, 3.39, 0.0, 0.0, 0.0, -4.6, -12.07, -15.65, -20.12, -13.91, -13.91, -21.46, -17.43, -16.12, -15.33, -15.62, -13.91, -18.78, -17.43, -12.64, -4.34, -2.2, 0.0, -3.04, -11.6, -12.96, -13.28, -13.15, -10.12, -7.19, -7.26, -8.53, -9.16, -8.1, -9.77, -9.77, -14.88, -14.88, -14.88, -14.51, -14.88, -15.01, -15.39, -15.41, -15.16, -14.78, -14.42, -14.18, -14.18, -14.29, -13.6, -14.82, -13.11, -12.19, -10.83, -9.66, -8.67, -9.92, -10.47, -9.87, -9.09, -6.34, -6.15, -6.8, -5.81, -5.46, -5.14, -2.81, 0.0, 1.98, 2.19, 0.0, -2.49, -5.52, -6.2, -5.95, -5.46, -4.6, -5.0, 0.0, 5.2, 9.6, 9.6, 9.2, 7.27, 7.27, 7.27, 7.27, 7.27, 7.27, 8.23, 7.27, 6.17, 6.71, 7.24, 8.22, 6.45, 3.68, 3.53, 0.0, 0.0, 4.2, 6.64, 0.0, -6.7, -7.93, 0.0, 2.84, 5.04, 0.0, -3.59, -15.69, -16.19, -14.18, -15.77, -16.91, -16.66, -14.95, -13.23, -11.38, -8.28, -8.28, -11.7, -14.39, -14.22, -13.15, -13.15, -10.3, -8.59, -8.85, -9.8, -8.94, -8.66, -8.66, -14.88, -14.88, -14.88, -14.51, -15.26, -15.01, -15.01, -15.41, -15.16, -14.78, -14.81, -14.18, -14.18, -14.29, -14.29, -13.6, -13.11, -12.86, -13.59, -10.76, -10.7, -10.36, -10.87, -12.33, -12.11, -11.06, -9.71, -8.05, -7.89, -6.79, -5.18, -1.55, 1.98, 4.48, 2.28, 0.0, -2.6, -3.98, -3.39, -3.25, -3.98, -2.1, -2.19, 0.0, 5.75, 6.45, 7.27, 7.27, 7.27, 6.95, 6.95, 8.55, 9.6, 10.0, 8.8, 6.95, 7.9, 7.59, 4.8, 3.68, 3.53, 0.0, 0.0, 0.0, 10.28, 9.2, 9.2, 7.9, 0.0, 1.9, 5.23, 6.22, 5.85, 2.91, -1.4, -4.88, -11.0, -20.56, -16.91, -16.99, -16.09, -15.69, -14.57, -14.18, -12.92, -9.77, -7.36, -4.81, -13.15, -12.39, -13.33, -12.39, -11.54, -11.28, -11.28, -11.68, -9.44, -9.44, -14.88, -14.88, -14.51, -14.51, -14.88, -14.64, -15.01, -15.41, -15.16, -15.58, -14.81, -14.18, -14.18, -14.29, -14.29, -13.46, -13.11, -12.86, -12.56, -13.41, -13.03, -11.06, -11.38, -11.86, -11.86, -11.38, -10.43, -9.32, -8.72, -7.54, -5.2, 0.0, 4.32, 4.32, 5.2, 2.71, 0.0, -2.1, -2.1, -1.84, -1.84, 0.0, 0.0, 1.71, 3.68, 6.7, 6.95, 7.27, 7.27, 7.27, 6.95, 9.75, 10.41, 10.84, 9.6, 8.23, 9.3, 8.59, 6.97, 5.0, 0.0, 0.0, 0.0, 0.0, 9.2, 7.59, 9.6, 12.07, 11.6, 10.65, 11.06, 9.84, 7.35, 1.47, -3.42, -7.37, -14.03, -22.05, -20.51, -17.81, -17.43, -16.09, -13.19, -8.05, -6.2, -4.98, 0.0, 0.0, 0.0, -9.66, -12.39, -12.72, -12.51, -11.37, -12.39, -12.51, -11.2, -11.2, -14.49, -14.88, -14.51, -14.88, -14.88, -14.88, -15.03, -15.41, -15.16, -15.2, -14.81, -14.18, -14.18, -14.57, -14.29, -13.82, -13.46, -12.76, -13.1, -13.01, -12.29, -11.2, -10.87, -10.75, -10.87, -10.59, -10.19, -8.94, -8.66, -6.3, -3.32, 0.0, 4.32, 5.2, 5.2, 2.71, 0.0, 0.0, -2.19, -2.19, -1.84, -1.84, 0.0, 1.98, 4.15, 5.52, 7.59, 4.4, 7.27, 9.2, 9.2, 10.18, 10.41, 10.84, 9.6, 10.0, 10.4, 11.2, 9.97, 7.59, 0.0, -10.73, 0.0, 10.0, 10.6, 10.6, 11.03, 11.45, 12.96, 14.75, 14.84, 12.57, 9.62, 0.0, -7.9, -9.23, -12.52, -14.82, -21.46, -18.24, -16.85, -16.31, -16.09, -10.75, -6.4, -2.63, 0.0, -3.47, -7.59, -3.82, -8.53, -12.56, -12.79, -12.42, -13.15, -13.15, -12.27, -12.27, -14.49, -14.49, -14.49, -14.88, -14.88, -14.88, -15.03, -15.03, -14.78, -15.2, -14.81, -14.18, -14.18, -14.18, -14.29, -13.82, -13.46, -13.11, -12.63, -12.48, -11.7, -11.38, -10.43, -10.54, -9.97, -10.02, -9.16, -8.11, -7.28, -5.31, -1.66, 0.0, 1.98, 2.82, 2.82, 2.82, 0.0, 0.0, -2.82, -2.28, -2.28, 0.0, 0.0, 2.82, 5.2, 6.71, 4.8, 4.2, 6.64, 9.2, 9.75, 10.18, 10.18, 10.84, 10.41, 10.41, 11.18, 12.46, 11.12, 8.4, 0.0, -0.0, 5.2, 11.03, 10.84, 10.84, 11.28, 11.18, 11.62, 12.52, 0.0, -17.88, 26.37, -13.86, -9.21, -8.8, -11.04, -12.16, -13.82, -19.22, -16.3, -14.75, -15.43, -15.65, -13.7, -11.09, -9.8, -11.17, -12.65, -12.64, -8.83, -10.86, -12.42, -13.57, -14.11, -13.75, -12.42, -12.42, -14.49, -14.49, -14.49, -14.13, -14.88, -14.88, -15.03, -15.03, -14.78, -15.2, -14.81, -14.18, -14.18, -14.18, -14.29, -13.82, -13.46, -12.63, -12.63, -12.48, -11.48, -10.59, -10.02, -10.22, -9.67, -9.44, -8.65, -7.42, -7.0, -5.19, -3.1, -1.72, 0.0, 0.0, 0.0, 0.0, 0.0, 0.0, 0.0, -2.82, 0.0, 0.0, 0.0, 2.82, 6.45, 6.2, 5.6, 5.0, 7.59, 10.0, 11.03, 10.6, 10.18, 10.73, 10.28, 10.28, 10.28, 12.07, 12.58, 10.4, 8.0, -0.0, 5.0, 9.67, 10.0, 11.84, 12.07, 12.52, 11.18, 0.0, -10.6, -20.56, -0.0, 12.59, -11.7, -13.41, -12.33, -11.85, -12.0, -14.11, -15.27, -15.24, -16.7, -16.44, -16.99, -16.37, -15.9, -16.32, -16.79, -15.53, -12.01, -9.48, -9.8, -12.39, -14.11, -13.75, -12.74, -12.74, -14.49, -14.49, -14.49, -14.13, -14.49, -14.49, -15.03, -15.03, -15.03, -15.2, -14.81, -14.18, -14.18, -14.18, -14.18, -13.82, -13.46, -12.63, -12.63, -12.15, -12.01, -10.97, -10.08, -10.3, -9.73, -9.44, -8.85, -8.18, -6.8, -6.1, -4.24, -3.47, -3.68, -2.13, 0.0, 0.0, 0.0, 0.0, 0.0, 0.0, 0.0, 0.0, 3.53, 3.53, 3.53, 3.39, 3.68, 2.6, 4.4, 6.95, 7.59, 11.2, 10.73, 10.73, 10.28, 10.28, 10.28, 9.83, 11.62, 8.85, 3.53, 0.0, 6.95, 8.93, 10.4, 11.71, 12.07, 12.07, 12.07, -10.4, -11.5, -12.52, -6.93, 6.72, 6.72, 4.99, 0.0, -14.53, -13.39, -12.33, -13.67, -15.47, -18.11, -19.79, -19.22, -18.33, -18.66, -18.33, -16.76, -15.04, -14.57, -6.6, -5.31, -3.58, -11.16, -13.15, -12.74, -12.74, -14.11, -14.11, -14.11, -14.13, -14.49, -14.49, -14.49, -14.64, -15.03, -15.2, -14.81, -14.57, -14.18, -14.18, -14.18, -13.46, -13.46, -12.63, -12.63, -12.63, -12.01, -11.52, -10.97, -10.08, -9.54, -9.12, -8.85, -7.93, -6.85, -6.4, -5.81, -4.87, -4.71, -3.68, -2.45, 0.0, 0.0, 0.0, 0.0, 0.0, 0.0, 0.0, 3.53, 3.53, 3.39, 3.39, 0.0, 0.0, 2.39, 5.46, 6.2, 9.3, 12.52, 12.07, 11.18, 10.73, 10.28, 9.83, 10.28, 0.0, 0.0, 2.93, 5.21, 9.83, 10.6, 12.07, 12.52, 12.52, 12.96, -12.52, -9.66, -10.12, -7.6, 0.0, 4.48, 15.33, 15.49, -12.64, -12.96, -11.55, -13.01, -13.86, -16.88, -17.98, -16.58, -17.43, -16.54, -15.49, -14.75, -15.2, -16.99, -8.51, -4.81, -2.21, -4.38, -10.12, -11.53, -11.53, -14.11, -14.11, -13.76, -14.13, -14.49, -14.49, -14.49, -14.85, -14.64, -14.81, -14.81, -14.81, -14.18, -14.18, -14.18, -13.46, -13.46, -13.11, -12.63, -12.63, -12.15, -11.22, -11.22, -10.68, -9.81, -9.54, -9.12, -7.92, -7.36, -6.2, -6.51, -8.05, -7.78, -7.54, -6.44, -3.04, 0.0, 0.0, 0.0, 0.0, 0.0, 0.0, 0.0, 4.8, 0.0, 0.0, 0.0, 0.0, 0.0, 0.0, 4.8, 10.0, 10.28, 10.28, 11.18, 10.73, 10.73, 10.28, 6.64, 0.0, 0.0, 2.71, 5.0, 7.59, 11.87, 11.62, 12.07, 12.96, 0.0, -12.96, -10.79, -9.48, -10.43, -5.37, 3.95, 16.36, 21.99, 0.0, -12.96, -12.07, -11.35, -12.58, -14.3, -14.38, -16.34, -17.77, -16.99, -15.65, -15.2, -13.99, -15.05, -16.37, -8.97, -7.4, -5.99, -6.4, -8.94, -8.94, -14.11, -14.11, -13.76, -14.49, -14.49, -14.49, -14.85, -14.85, -14.64, -14.81, -14.81, -14.81, -14.57, -14.57, -14.57, -13.91, -13.46, -13.46, -12.63, -12.63, -12.15, -12.15, -11.22, -10.92, -10.4, -9.54, -9.12, -8.94, -8.46, -8.78, -8.31, -8.31, -8.73, -8.3, -6.44, -3.04, 0.0, 0.0, 0.0, 0.0, 0.0, 0.0, 0.0, 0.0, 0.0, 0.0, 0.0, 0.0, 0.0, 0.0, 0.0, 9.6, 10.73, 10.28, 10.73, 11.62, 11.18, 10.73, 7.27, -0.0, 0.0, 0.0, 2.19, 5.4, 8.22, 11.87, 11.99, 0.0, -12.07, -12.96, -12.79, -6.4, -8.38, -11.09, -13.59, -19.67, 0.0, 0.0, -13.15, -12.83, -11.98, -11.13, -13.31, -12.39, -12.72, -15.78, -15.34, -14.84, -14.53, -13.99, -14.6, -16.09, -12.92, -10.87, -9.17, -8.68, -8.43, -8.43, -14.11, -14.11, -13.76, -14.11, -14.49, -14.49, -14.85, -14.85, -14.64, -14.64, -14.81, -14.81, -14.57, -14.57, -14.57, -14.18, -13.46, -13.46, -13.01, -12.63, -12.15, -11.83, -11.38, -10.92, -10.11, -10.57, -10.22, -10.17, -9.22, -9.06, -9.42, -9.8, -9.8, -9.48, -7.78, -6.94, -3.96, -3.96, -5.4, -5.4, 0.0, 0.0, -5.0, 0.0, 0.0, 0.0, 0.0, -3.11, -7.27, -4.6, 0.0, 10.73, 10.28, 10.28, 10.73, 10.73, 12.07, 11.62, 10.73, 0.0, 0.0, 0.0, 0.0, 3.96, 6.7, 11.6, 12.39, 0.0, -11.62, -11.62, -12.39, -6.6, -3.81, -8.59, -12.79, -18.33, -17.52, -19.22, -15.62, -15.19, -11.87, -10.04, -12.52, -11.95, -12.3, -11.99, -11.37, -13.97, -15.47, -15.05, -15.97, -16.99, -16.41, -13.39, -13.05, -10.87, -9.17, -9.17, -13.98, -13.98, -13.76, -14.11, -14.49, -14.49, -14.49, -14.85, -14.64, -14.64, -14.64, -14.81, -14.81, -14.57, -14.57, -14.18, -13.76, -13.46, -13.01, -12.65, -11.83, -11.83, -11.5, -11.5, -11.06, -10.75, -10.22, -10.75, -10.43, -9.8, -9.42, -10.86, -10.65, -10.47, -7.78, -6.94, -6.94, -6.94, -8.53, -8.53, -8.53, -5.2, -5.2, -4.8, -7.9, 0.0, 0.0, -4.6, -7.27, 0.0, 11.18, 10.28, 10.28, 10.28, 10.73, 10.73, 9.83, 11.18, 11.62, 11.18, 0.0, 0.0, 0.0, 0.0, 0.0, 8.85, 11.99, 0.0, -11.18, -9.83, -10.73, -9.48, -2.28, -3.33, -8.51, -13.59, -19.67, -16.19, -18.33, -18.68, -18.02, -14.47, -12.96, -12.04, -9.3, -10.12, -10.82, -12.79, -14.75, -15.99, -15.34, -15.53, -15.65, -15.61, -14.75, -13.39, -11.16, -11.16, -13.98, -13.98, -13.98, -14.11, -14.11, -14.49, -14.49, -14.85, -14.46, -14.26, -14.64, -14.81, -14.81, -14.57, -14.57, -13.76, -13.39, -13.46, -13.01, -13.01, -12.22, -11.88, -11.5, -11.94, -11.2, -11.2, -10.92, -10.96, -10.12, -10.43, -10.43, -10.86, -10.99, -10.82, -9.48, -9.17, -8.85, -8.85, -8.85, -10.8, -10.8, -8.53, -8.22, -5.0, -7.59, -12.07, -8.53, -7.59, -7.27, 0.0, 10.73, 10.28, 10.28, 10.73, 10.73, 10.73, 10.28, 11.62, 9.6, 7.9, 0.0, 0.0, 0.0, 0.0, 0.0, 0.0, 0.0, -0.0, -12.07, -9.75, -8.91, -11.18, -4.95, 0.0, -3.19, -7.49, -10.89, -14.31, -16.22, -19.67, -20.51, -18.24, -14.99, -13.57, -11.53, -10.12, -13.57, -14.3, -14.3, -14.75, -14.55, -14.6, -15.2, -15.53, -14.79, -13.97, -13.05, -13.05, -13.61, -13.61, -13.98, -14.31, -14.11, -14.11, -14.11, -14.46, -14.46, -14.26, -14.26, -14.64, -14.81, -14.81, -14.13, -13.76, -13.39, -13.39, -13.01, -12.65, -12.3, -12.3, -11.94, -11.6, -11.2, -11.68, -11.42, -11.57, -11.88, -10.36, -10.12, -11.44, -10.99, -10.82, -9.8, -9.48, -10.79, -10.79, -11.87, -11.2, -10.8, -10.8, -10.4, -8.22, -7.9, -10.0, -7.9, -9.6, 0.0, 11.18, 10.73, 10.28, 10.73, 10.73, 10.28, 10.28, 11.18, 11.18, 9.6, 9.2, 8.53, 0.0, 0.0, 0.0, -8.22, -7.9, -7.27, -11.62, -12.52, -11.45, -10.28, 0.0, -13.86, -4.55, -2.41, -5.92, -7.36, -6.97, -9.8, -10.73, -11.73, -11.64, -9.0, -4.12, -1.3, -2.88, -6.16, -8.85, -10.12, -9.8, -13.15, -14.3, -14.6, -15.2, -15.61, -14.38, -13.97, -13.97, -13.93, -13.93, -13.61, -14.31, -14.11, -14.11, -14.11, -14.46, -14.46, -14.26, -14.26, -14.26, -14.4, -14.81, -14.13, -13.76, -13.76, -13.39, -13.39, -12.98, -12.3, -12.3, -11.95, -11.6, -12.05, -11.8, -11.8, -11.57, -11.35, -11.68, -10.73, -11.09, -10.65, -10.82, -11.09, -11.09, -11.99, -11.99, -12.3, -11.87, -11.87, -11.2, -10.8, -10.4, -10.0, -10.0, -10.0, -7.59, 0.0, 10.73, 10.28, 10.28, 11.18, 10.73, 10.28, 10.73, 10.73, 9.6, 9.2, 9.6, 7.59, 4.8, 0.0, 0.0, 0.0, -11.18, -7.59, 0.0, -5.2, -11.6, 0.0, 11.18, -11.62, -11.38, -8.91, -4.32, -6.81, 0.0, 3.36, 2.09, 0.0, -1.3, -1.27, 0.0, 0.0, -0.97, -3.37, -6.8, -10.12, -7.44, -4.1, -11.16, -13.86, -14.3, -14.3, -14.42, -13.59, -13.59, -13.93, -13.93, -13.93, -13.93, -14.31, -14.11, -14.11, -14.46, -14.46, -14.46, -14.26, -14.26, -14.26, -14.4, -14.03, -13.76, -13.39, -13.39, -13.39, -12.62, -12.62, -11.95, -12.37, -12.05, -11.69, -11.8, -11.9, -11.57, -12.45, -11.9, -10.73, -10.91, -10.3, -10.82, -11.88, -12.87, -12.39, -12.39, -13.01, -12.3, -12.3, -11.2, -12.52, -12.07, -10.4, -10.0, -10.0, -7.59, 0.0, 10.73, 10.73, 11.18, 10.73, 10.28, 10.28, 10.28, 9.2, 8.8, 9.2, 9.6, 8.85, 7.9, 7.9, 7.9, 7.27, 0.0, 0.0, 0.0, 0.0, 0.0, 8.85, 11.2, 0.0, -11.68, -14.55, -6.82, 0.0, 8.6, 8.47, 5.51, 2.4, 0.0, 0.0, -1.06, -1.06, -0.89, -2.0, -2.72, -7.93, -9.48, -3.96, -3.04, -6.94, -13.41, -13.41, -14.18, -13.59, -13.59, -13.93, -13.93, -13.93, -13.93, -13.93, -14.11, -14.11, -14.46, -14.46, -14.46, -14.26, -14.26, -14.26, -14.4, -14.03, -14.03, -13.65, -13.39, -13.39, -13.39, -13.02, -12.37, -12.37, -12.05, -12.13, -12.27, -11.9, -12.07, -12.07, -11.9, -12.13, -11.28, -11.16, -11.16, -11.5, -12.87, -12.87, -13.44, -13.01, -12.72, -12.72, -12.96, -12.52, -12.07, -11.45, -11.03, -10.6, -11.18, 0.0, 10.73, 10.73, 11.18, 10.73, 10.28, 10.73, 10.28, 8.8, 8.8, 9.33, 9.75, 9.33, 10.4, 7.59, 7.9, 5.0, 0.0, 0.0, 0.0, 0.0, 0.0, 0.0, 0.0, 0.0, -6.35, -7.57, -3.53, 4.99, 9.33, 9.2, 6.47, 1.16, -1.13, -2.21, -2.15, -1.11, 0.0, 0.0, 2.43, 0.0, -8.85, -5.6, -2.45, 0.0, -5.6, -12.79, -12.96, -13.99, -13.99, -13.54, -13.54, -13.93, -13.93, -13.93, -13.73, -14.11, -14.46, -14.46, -14.46, -14.46, -14.26, -14.26, -14.26, -14.03, -14.03, -13.65, -13.65, -13.39, -13.39, -13.02, -12.37, -12.79, -12.13, -12.13, -12.27, -12.36, -12.07, -11.72, -11.9, -12.13, -11.64, -11.53, -11.99, -11.99, -12.72, -12.45, -13.15, -13.01, -13.01, -13.41, -12.96, -12.96, -12.52, -11.45, -11.71, -11.62, -11.62, 11.18, 11.18, 10.73, 10.73, 10.73, 10.73, 10.28, 9.83, 8.8, 8.8, 9.33, 9.75, 9.97, 7.44, 7.59, 7.27, 4.6, 0.0, 0.0, 0.0, 0.0, -11.18, 0.0, 0.0, 0.0, 0.0, 0.0, 0.0, 1.45, 5.78, 5.89, 2.72, 0.0, -1.37, -2.56, -1.29, 0.0, 0.0, 1.83, 3.96, 6.94, 0.0, -5.8, -3.14, 0.0, 0.0, -7.51, -12.71, -13.72, -13.72, -13.54, -13.54, -13.93, -13.93, -13.93, -13.73, -14.11, -14.11, -14.46, -14.46, -14.46, -14.26, -14.26, -14.26, -14.26, -14.03, -13.65, -13.65, -13.65, -13.39, -13.02, -13.03, -12.79, -12.41, -12.56, -12.74, -12.36, -12.07, -12.27, -11.9, -12.13, -12.42, -12.79, -12.74, -13.32, -12.89, -13.23, -13.15, -13.01, -13.01, -13.41, -12.96, -12.52, -12.96, -10.84, -11.71, -11.71, -11.62, 10.4, 11.18, 11.18, 10.73, 10.73, 10.73, 9.83, 8.8, 8.8, 8.4, 9.33, 9.33, 9.54, 9.11, 7.27, 6.95, 0.0, 0.0, 0.0, 0.0, 0.0, 0.0, 0.0, 0.0, 11.06, 6.97, 3.45, -1.62, -4.87, -4.88, -7.07, -6.14, -4.77, -1.73, 0.0, 0.0, 0.0, 1.83, 3.68, 4.1, 4.81, 0.0, -5.8, -4.24, -2.63, 0.0, 0.0, -9.17, -13.15, -13.23, -13.54, -13.54, -13.54, -13.93, -13.93, -13.93, -13.73, -13.73, -14.46, -14.46, -14.46, -14.07, -13.87, -13.87, -14.26, -13.65, -13.65, -13.65, -13.65, -13.39, -13.02, -13.42, -12.79, -12.81, -12.99, -12.36, -12.79, -12.56, -12.27, -11.9, -12.13, -12.79, -13.15, -13.75, -13.44, -13.72, -13.23, -13.15, -13.15, -13.41, -13.41, -12.96, -12.52, -12.96, -10.84, -11.21, -11.45, 0.0, 10.4, 11.18, 11.18, 10.73, 10.73, 10.28, 9.83, 9.33, 8.4, 8.91, 8.91, 9.54, 9.54, 9.11, 9.6, 6.64, 0.0, 0.0, 0.0, 0.0, 0.0, 0.0, 0.0, 0.0, 0.0, 0.0, 2.4, 0.0, -6.6, -10.01, -11.8, -10.54, -7.03, -1.89, 0.0, 0.0, 1.72, 3.25, 3.36, 3.81, 3.68, 2.2, 0.0, -2.63, -2.63, -2.63, 0.0, -2.54, -8.05, -13.15, -13.54, -13.54, -13.54, -13.54, -13.93, -13.93, -13.73, -13.73, -14.07, -14.07, -14.07, -14.07, -14.26, -14.26, -14.26, -14.26, -14.03, -13.65, -13.65, -13.27, -13.42, -13.03, -13.2, -12.81, -12.99, -12.36, -12.79, -12.56, -12.27, -12.79, -12.5, -12.79, -13.39, -13.88, -13.88, -14.19, -13.86, -13.15, -13.15, -13.41, -13.41, -12.96, -12.96, -11.71, -11.6, -11.28, -12.07, 12.07, 11.62, 10.0, 10.0, 9.6, 10.73, 10.28, 9.83, 8.8, 8.4, 8.48, 8.91, 9.11, 9.54, 9.11, 7.37, 8.8, 7.27, 4.6, 0.0, 0.0, 7.59, 11.18, 11.18, 0.0, -13.86, -11.06, 0.0, 10.57, 0.0, -8.93, -8.78, -7.95, -4.71, 0.0, 0.0, 1.33, 3.01, 3.1, 2.81, 3.2, 2.02, 1.96, 0.0, -2.28, -4.38, -3.81, -4.24, -2.2, -4.1, -8.05, -13.54, -13.54, -13.54, -13.54, -13.54, -13.54, -13.73, -13.73, -14.07, -14.07, -14.07, -14.46, -14.46, -14.26, -14.26, -14.26, -14.26, -13.65, -13.65, -13.27, -13.03, -13.41, -12.81, -13.19, -12.99, -12.79, -12.79, -12.56, -12.79, -12.79, -13.07, -12.66, -13.57, -13.96, -14.22, -14.19, -13.86, -13.67, -13.86, -13.86, -13.41, -12.96, -12.96, -12.14, -12.14, -13.41, 0.0, 11.18, 10.73, 7.59, 7.59, 9.2, 10.28, 10.28, 9.83, 9.39, 8.4, 8.48, 8.48, 9.11, 9.39, 9.39, 10.73, 8.8, 8.8, 9.2, 4.4, 7.59, 10.28, 11.18, 11.62, 0.0, -12.96, -13.86, -7.0, 6.5, 9.61, 0.0, -6.64, -5.15, 0.0, 2.43, 3.3, 3.9, 3.9, 2.72, 1.47, 1.63, 0.0, 0.0, 0.0, -2.02, -3.81, -4.38, -6.0, -5.11, -5.8, -5.8, -13.54, -13.54, -13.54, -13.54, -13.54, -13.54, -13.73, -13.73, -14.07, -14.07, -14.46, -14.46, -14.46, -14.26, -14.26, -14.26, -14.26, -13.65, -13.65, -13.64, -13.03, -13.41, -12.81, -13.19, -12.99, -13.39, -12.79, -12.56, -13.02, -12.79, -13.28, -13.28, -13.7, -14.03, -13.79, -14.22, -14.16, -14.11, -14.3, -13.86, -13.86, -13.41, -12.96, -12.96, -12.96, -12.96, 0.0, 0.0, -0.0, -0.0, -0.0, 6.95, 9.83, 9.83, 9.39, 9.39, 8.48, 8.48, 8.48, 8.94, 9.39, 8.94, 8.49, 9.83, 8.8, 8.8, 9.2, 9.2, 10.28, 11.18, 11.62, 0.0, -12.96, -12.52, -14.75, -16.09, 0.0, 10.04, 5.52, 7.97, 9.32, 8.68, 7.68, 5.8, 4.49, 2.72, 1.63, 0.0, 0.0, -1.58, -1.58, -2.81, -4.38, -5.45, -8.1, -6.67, -6.67, -6.67, -13.15, -13.15, -13.54, -13.54, -13.54, -13.54, -13.73, -13.73, -14.07, -14.07, -14.46, -14.46, -14.46, -14.46, -14.26, -14.26, -13.87, -13.87, -13.65, -13.25, -13.03, -13.02, -13.19, -13.19, -13.39, -13.39, -12.79, -13.2, -13.02, -13.02, -13.44, -13.44, -13.8, -13.8, -13.59, -14.22, -14.16, -14.11, -14.11, -14.3, -13.86, -13.41, -13.41, -12.96, -12.96, -12.96, 0.0, -0.0, -0.0, -0.0, -0.0, 0.0, 9.39, 9.39, 8.4, 8.94, 8.94, 8.49, 8.49, 8.94, 8.94, 8.94, 8.94, 10.73, 9.83, 8.8, 9.2, 9.6, 10.28, 11.18, 7.9, 0.0, -11.62, -12.3, -13.01, -14.42, 0.0, 4.65, 12.53, 15.64, 14.48, 14.28, 11.29, 8.34, 6.22, 3.56, 1.42, 0.0, -1.58, -2.81, -3.01, -3.98, -5.63, -9.48, -9.17, -9.17, -9.17, -9.17, -13.15, -13.15, -13.15, -13.54, -13.54, -13.54, -13.54, -13.35, -14.07, -14.07, -14.07, -14.07, -14.46, -14.07, -13.87, -13.87, -13.87, -13.49, -13.27, -13.25, -13.02, -13.02, -13.19, -13.19, -13.56, -12.99, -12.99, -13.2, -13.2, -13.02, -13.44, -13.44, -13.8, -13.8, -14.07, -13.96, -14.19, -14.16, -14.16, -14.3, -13.86, -13.86, -13.41, -12.96, -12.96, -12.52, -12.52, -0.0, -0.0, -0.0, 0.0, 0.0, 9.83, 9.39, 9.39, 8.49, 8.49, 8.05, 8.05, 8.49, 8.49, 8.94, 8.94, 8.49, 10.73, 8.8, 8.8, 8.4, 9.2, 10.73, 11.62, 0.0, -7.9, -8.85, -7.44, 0.0, 0.0, 2.59, 6.55, 14.16, 18.48, 17.38, 12.99, 8.59, 6.36, 3.75, 2.4, 0.0, -1.51, -3.01, -5.02, -6.21, -8.1, -10.37, -11.6, -9.77, -9.77, -9.77, -13.15, -13.15, -13.15, -13.15, -13.54, -13.15, -13.54, -13.35, -13.68, -14.07, -14.07, -14.07, -14.07, -14.07, -13.87, -13.49, -13.49, -13.49, -12.89, -13.25, -13.41, -13.37, -13.37, -13.56, -13.15, -12.99, -13.35, -13.35, -13.2, -13.2, -13.57, -13.57, -13.88, -13.8, -13.8, -14.03, -14.19, -14.19, -14.19, -14.3, -13.86, -13.41, -13.41, -12.96, -12.96, -11.2, -8.53, -8.53, -0.0, -0.0, 0.0, 0.0, 10.28, 9.83, 9.83, 8.48, 8.94, 8.49, 8.05, 8.05, 8.49, 8.49, 8.94, 9.39, 8.77, 10.28, 8.8, 8.0, 9.83, 10.28, 10.28, 0.0, 0.0, 0.0, 0.0, 4.38, 2.98, 0.0, 3.88, 10.66, 17.14, 18.24, 12.18, 8.26, 6.27, 3.77, 1.31, 0.0, -2.8, -4.05, -6.0, -6.21, -8.85, -12.14, -12.27, -10.8, -10.8, -10.8, -13.15, -13.15, -13.15, -13.15, -13.15, -13.15, -13.15, -13.54, -13.68, -13.68, -13.68, -13.68, -13.68, -13.68, -13.68, -13.49, -13.49, -13.1, -12.89, -13.25, -13.41, -13.37, -12.96, -13.15, -13.15, -13.15, -13.35, -13.35, -13.2, -13.2, -13.57, -13.57, -13.88, -13.88, -13.8, -14.03, -13.96, -14.22, -14.19, -13.86, -13.86, -13.41, -13.41, -12.96, -12.3, -11.2, -10.8, -8.53, -0.0, -0.0, 0.0, 0.0, 10.73, 10.28, 9.33, 9.33, 8.94, 8.49, 8.05, 8.05, 8.05, 8.49, 8.49, 8.94, 8.94, 9.83, 9.39, 9.39, 9.83, 9.83, 10.28, 7.9, 5.2, 0.0, 0.0, 0.0, 0.0, 0.0, 5.09, 11.7, 13.28, 12.29, 12.37, 11.8, 9.32, 4.21, 0.0, -2.38, -2.89, -4.81, -4.65, -6.44, -7.24, -10.8, -11.91, -10.8, -10.8, -10.8, -13.15, -13.15, -13.15, -12.77, -13.15, -13.15, -13.15, -13.15, -13.29, -13.68, -13.68, -13.68, -13.68, -13.68, -13.68, -13.1, -13.1, -13.1, -12.89, -13.25, -12.86, -13.37, -12.96, -13.15, -13.15, -13.15, -13.35, -13.35, -13.35, -13.2, -13.57, -13.57, -13.88, -13.88, -14.07, -14.03, -14.23, -14.22, -13.77, -13.86, -13.41, -13.41, -12.96, -12.96, -12.96, -12.52, -12.07, -8.53, -0.0, -0.0, 0.0, 0.0, 10.73, 10.73, 9.75, 9.33, 9.39, 8.94, 8.49, 8.05, 7.6, 8.05, 8.49, 8.94, 8.94, 10.28, 10.28, 9.83, 9.83, 9.83, 10.28, 7.59, 8.22, 0.0, 0.0, 0.0, 0.0, 0.0, 7.59, 11.06, 10.33, 9.77, 15.01, 17.4, 12.0, 3.53, -1.69, -3.14, -1.83, -2.06, -4.65, -6.21, -5.98, -8.94, -10.6, -9.6, -9.6, -9.6, -12.77, -12.77, -12.77, -12.77, -12.77, -12.77, -12.77, -13.15, -13.29, -13.29, -13.29, -13.29, -13.29, -13.29, -13.29, -13.1, -13.1, -13.1, -12.89, -12.86, -13.19, -12.96, -12.96, -13.15, -13.15, -13.15, -13.35, -13.35, -13.35, -13.35, -13.57, -13.99, -14.31, -14.31, -14.07, -14.07, -14.23, -13.79, -13.77, -13.33, -13.41, -12.96, -12.96, -12.96, -12.52, -12.52, -12.07, -8.53, -8.22, -0.0, 0.0, 0.0, 0.0, 10.73, 9.75, 9.75, 9.33, 9.39, 8.49, 8.05, 8.05, 7.6, 8.05, 8.49, 8.49, 8.94, 9.83, 9.83, 9.83, 9.83, 9.83, 10.28, 0.0, 0.0, 0.0, 0.0, 0.0, 4.24, 6.4, 8.85, 8.05, 10.33, 14.22, 16.48, 10.29, 2.22, -4.24, -5.29, -4.32, -1.77, -1.71, -5.98, -6.7, -7.59, -8.82, -8.8, -8.8, -8.8, -12.77, -12.77, -12.77, -12.77, -12.77, -12.77, -12.77, -12.77, -13.05, -13.29, -13.29, -13.29, -13.29, -13.29, -13.29, -13.49, -13.1, -13.1, -12.86, -12.86, -12.79, -12.96, -12.96, -13.15, -13.15, -13.15, -13.15, -13.35, -13.35, -13.35, -13.77, -13.99, -13.99, -14.31, -14.11, -14.07, -14.07, -13.79, -13.79, -13.33, -13.41, -12.96, -12.96, -12.52, -12.52, -12.52, -12.07, -12.07, -11.62, 0.0, 0.0, 0.0, 0.0, 10.73, 9.6, 9.75, 8.8, 9.39, 8.94, 8.49, 8.05, 7.6, 7.6, 8.05, 8.05, 8.94, 9.39, 10.28, 10.28, 10.28, 10.28, 8.8, 0.0, -7.9, 0.0, 0.0, 0.0, 5.8, 6.2, 8.18, 10.43, 10.43, 12.52, 9.66, 3.38, -2.17, -2.5, -6.44, -7.59, -5.75, -3.19, -4.58, -7.9, -8.38, -8.03, -8.43, -8.43, -8.43, -12.77, -12.38, -12.38, -12.38, -12.38, -12.38, -12.38, -13.05, -13.05, -12.9, -12.9, -12.9, -13.29, -13.68, -13.68, -13.1, -13.1, -12.72, -12.86, -12.47, -12.79, -12.62, -12.96, -13.15, -13.15, -13.15, -13.15, -12.99, -13.77, -13.77, -13.77, -13.99, -13.99, -14.31, -14.11, -14.11, -14.07, -13.63, -13.79, -13.33, -13.33, -12.96, -12.96, -12.52, -12.52, -12.07, -12.07, -12.07, -11.62, 0.0, 0.0, 0.0, 0.0, 10.73, 10.73, 9.2, 6.95, 8.4, 8.94, 8.94, 8.49, 8.05, 7.6, 7.6, 7.45, 6.94, 8.4, 8.4, 9.83, 10.28, 10.73, 10.73, 10.28, 9.83, 0.0, 0.0, 0.0, 0.0, 0.0, 0.0, 6.4, 7.93, 10.12, 0.0, -4.88, -4.3, -2.87, -4.48, -8.94, -9.58, -6.98, -5.54, -7.26, -7.9, -9.6, 0.0, 0.0, 0.0, -12.66, -12.66, -12.66, -12.66, -12.66, -12.66, -12.66, -12.66, -12.66, -12.9, -13.29, -13.29, -13.68, -13.29, -13.29, -13.1, -12.72, -12.72, -12.47, -12.47, -12.79, -12.62, -12.96, -13.15, -13.15, -13.15, -13.15, -13.39, -13.39, -13.77, -13.77, -13.62, -13.99, -14.31, -14.11, -14.11, -13.63, -13.63, -13.15, -13.34, -12.88, -12.86, -12.52, -12.52, -12.52, -12.07, -12.07, -12.07, -12.07, 0.0, 0.0, 0.0, 11.62, 11.18, 10.73, 10.28, 6.95, 6.64, 8.0, 8.94, 8.49, 8.05, 8.05, 7.6, 7.37, 7.37, 6.64, 6.64, 8.8, 8.4, 9.83, 10.28, 9.6, 9.2, 10.28, 11.18, 0.0, 0.0, 0.0, 0.0, 0.0, 6.2, 4.66, -2.71, -4.21, -3.82, -4.45, -5.48, -9.66, -10.35, -9.08, -8.3, -6.97, 0.0, 7.59, 10.28, 10.28, 10.28, -12.26, -12.26, -12.26, -12.26, -12.66, -12.66, -12.66, -12.66, -13.05, -13.29, -13.29, -13.29, -13.29, -13.29, -13.29, -12.72, -12.72, -12.72, -12.47, -12.47, -12.79, -12.62, -12.96, -12.79, -13.15, -13.56, -13.56, -13.39, -13.39, -13.39, -13.62, -13.62, -13.62, -13.57, -13.88, -13.88, -13.67, -13.63, -13.19, -13.15, -12.66, -12.86, -12.39, -12.52, -12.52, -12.07, -12.07, -12.07, -12.07, 0.0, 0.0, 0.0, 11.62, 11.18, 9.6, 10.28, 9.33, 6.64, 6.32, 8.0, 8.49, 8.05, 7.6, 7.6, 7.21, 7.21, 6.32, 4.22, 4.6, 7.27, 10.28, 0.0, 0.0, 4.6, 9.2, 10.73, 0.0, -12.07, -12.52, 0.0, 0.0, 0.0, 0.0, 0.0, 0.0, 0.0, -1.73, -4.24, -8.53, -10.79, -9.58, -7.9, 0.0, 3.53, 7.59, 7.27, 7.27, 7.27, -12.26, -12.26, -12.26, -12.26, -12.26, -12.66, -12.66, -13.05, -13.05, -12.9, -12.9, -13.29, -12.9, -12.9, -12.9, -12.72, -12.72, -12.72, -12.86, -12.47, -12.65, -13.02, -13.02, -13.19, -13.19, -13.56, -13.97, -13.8, -13.39, -13.39, -13.19, -13.19, -13.2, -13.57, -13.57, -13.44, -13.44, -13.37, -12.94, -12.85, -12.71, -12.66, -12.14, -12.39, -12.27, -12.07, -12.07, -12.07, -12.07, 0.0, 0.0, 0.0, 11.62, 11.18, 9.6, 9.2, 9.83, 8.91, 7.44, 8.0, 8.49, 8.05, 7.6, 7.6, 8.05, 7.63, 7.2, 3.6, -0.0, -0.0, -0.0, 0.0, 0.0, 0.0, 6.95, 6.95, 0.0, -11.62, -8.85, -8.85, -12.52, 0.0, 13.28, 10.8, 5.35, 0.0, 0.0, -4.48, -8.58, -10.38, -9.58, -9.67, -0.0, -0.0, 0.0, 0.0, 0.0, 0.0, -12.26, -12.26, -12.26, -12.26, -12.66, -12.66, -12.66, -12.66, -13.05, -12.9, -12.9, -12.9, -12.9, -12.9, -12.72, -12.72, -12.72, -12.51, -12.86, -12.86, -12.65, -13.02, -13.02, -13.59, -13.59, -13.59, -13.59, -12.99, -13.39, -13.39, -13.19, -12.79, -12.79, -13.2, -13.57, -13.15, -13.15, -13.01, -12.94, -12.51, -12.42, -12.3, -11.72, -12.04, -11.87, -11.71, -11.45, -10.8, -8.53, 0.0, 0.0, 0.0, 8.22, 7.9, 9.6, 7.27, 9.33, 9.39, 8.91, 8.0, 8.49, 8.05, 8.05, 8.05, 8.05, 8.05, 8.49, 8.49, 6.01, -0.0, -0.0, 0.0, 0.0, 0.0, 0.0, 0.0, 0.0, -11.18, -11.62, -8.53, -8.85, -0.0, 5.65, 18.79, 20.23, 0.0, 0.0, 0.0, -9.3, -11.18, -11.62, -11.28, -10.4, -11.62, 0.0, 9.2, 9.2, 9.2, -12.26, -12.26, -12.26, -12.26, -12.26, -12.26, -12.26, -12.66, -12.5, -12.5, -12.5, -12.5, -12.9, -12.9, -12.72, -12.72, -12.72, -12.89, -13.25, -13.25, -13.03, -13.41, -13.41, -13.59, -13.59, -13.59, -13.59, -12.99, -12.99, -12.74, -12.36, -12.79, -12.79, -12.79, -12.79, -12.79, -13.15, -12.72, -12.6, -12.18, -12.04, -11.85, -11.2, -11.5, -11.2, -11.62, -10.04, -8.53, -5.4, 0.0, 0.0, 0.0, 7.9, 7.9, 9.6, 9.2, 6.95, 9.83, 9.39, 8.0, 8.94, 8.49, 8.05, 8.05, 8.05, 8.49, 8.49, 8.49, 8.49, -0.0, -0.0, 0.0, 0.0, 0.0, 0.0, 0.0, 0.0, 0.0, -7.59, 0.0, 0.0, -0.0, -0.0, -0.0, 0.0, 0.0, 0.0, 12.01, -12.96, -10.38, -10.79, -10.79, -12.07, -8.22, 9.3, 10.0, 10.0, 10.0, -12.26, -12.26, -12.26, -12.26, -12.26, -12.26, -12.26, -12.26, -12.11, -12.5, -12.5, -12.9, -12.9, -12.9, -13.1, -13.1, -13.1, -12.89, -13.25, -13.25, -13.03, -13.03, -13.41, -13.2, -13.19, -13.59, -12.99, -12.99, -12.6, -12.36, -12.36, -12.36, -12.36, -11.97, -12.39, -12.39, -12.38, -12.38, -12.21, -11.8, -11.6, -11.6, -10.94, -11.2, -10.41, -10.73, -8.53, -6.7, -3.82, -3.82, 0.0, 0.0, 0.0, 7.9, 7.59, 4.6, 6.95, 8.8, 9.39, 8.0, 8.94, 8.49, 8.05, 8.49, 8.49, 8.49, 8.94, 8.94, 8.94, 0.0, 0.0, 0.0, -9.83, 0.0, -9.39, -9.39, -6.64, -4.2, 0.0, 0.0, 0.0, 0.0, -6.6, -0.0, 0.0, 0.0, 0.0, 0.0, 0.0, -13.15, -12.71, -12.71, -12.3, 9.17, 11.62, 11.62, 11.62, 11.62, -11.87, -11.87, -11.87, -12.26, -12.26, -12.26, -12.26, -12.26, -12.11, -12.5, -12.5, -12.9, -12.9, -13.1, -13.1, -13.1, -13.1, -12.89, -12.89, -13.25, -13.03, -12.65, -13.03, -13.2, -12.81, -12.81, -12.56, -12.18, -12.18, -11.9, -11.9, -12.36, -12.07, -11.69, -11.69, -11.31, -11.77, -11.77, -11.38, -11.38, -11.12, -11.12, -10.79, -10.01, -9.62, -8.85, -8.53, -5.4, -5.4, -2.93, 0.0, 0.0, 0.0, 0.0, 0.0, 4.6, 4.6, 4.4, 9.39, 8.94, 8.49, 8.49, 8.49, 8.49, 8.49, 8.49, 8.94, 8.94, 8.94, 0.0, 0.0, 0.0, -10.28, -9.39, -9.39, -9.39, -6.64, -4.4, 0.0, 0.0, 0.0, 0.0, -14.75, -16.54, -22.8, -8.76, -4.38, 0.0, 0.0, -9.17, -12.87, -8.85, 0.0, 10.73, 11.6, 11.26, 11.26, 11.26, -11.87, -11.87, -11.87, -11.87, -11.87, -12.26, -12.26, -12.11, -12.11, -12.5, -12.5, -12.9, -12.9, -13.1, -13.1, -13.1, -13.1, -12.89, -12.89, -13.25, -12.65, -12.65, -13.03, -12.79, -12.81, -12.56, -12.18, -12.18, -11.9, -11.9, -11.9, -11.9, -11.21, -11.21, -11.21, -10.85, -11.31, -10.94, -10.94, -10.94, -10.62, -10.62, -10.23, -9.76, -8.15, -8.01, -6.7, -5.4, -4.48, -2.37, -2.82, 0.0, 0.0, 0.0, 0.0, 0.0, 0.0, 4.4, 6.64, 8.94, 8.94, 8.49, 8.49, 8.49, 8.49, 8.49, 8.94, 8.94, 8.94, 6.32, 0.0, 0.0, -10.28, -10.73, -9.39, -9.83, -9.83, 0.0, 0.0, 0.0, 0.0, -12.96, -14.3, -15.65, -14.86, -6.72, 0.0, 0.0, 0.0, 0.0, -2.53, 0.0, 7.59, 9.96, 10.55, 9.84, 9.84, 9.84, -11.87, -11.87, -11.87, -11.87, -11.87, -11.87, -11.87, -12.11, -12.11, -12.5, -12.5, -12.9, -12.72, -12.72, -12.72, -12.72, -12.72, -12.51, -12.51, -12.27, -12.65, -12.65, -12.41, -12.41, -12.81, -12.18, -12.18, -12.18, -11.9, -11.9, -11.44, -10.73, -10.73, -10.73, -10.85, -10.85, -10.47, -10.12, -10.12, -10.12, -10.12, -9.69, -9.69, -8.85, -7.51, -7.28, -5.99, -4.75, -3.82, -1.91, -2.28, -2.71, 0.0, 0.0, 0.0, 0.0, 0.0, 0.0, 0.0, 6.64, 8.94, 8.49, 8.49, 8.49, 8.49, 8.49, 8.94, 8.94, 8.94, 6.32, 0.0, 0.0, -4.2, 0.0, -9.39, -9.83, -9.83, 0.0, 0.0, 0.0, -8.22, -9.17, -12.39, -10.43, -13.28, -6.07, 0.0, 0.0, 2.55, 2.5, 4.17, 6.12, 9.35, 10.12, 9.17, 9.96, 9.96, 9.96, -11.87, -11.87, -11.87, -11.87, -11.87, -11.87, -11.87, -12.11, -12.11, -12.5, -12.5, -12.9, -12.72, -12.72, -12.72, -12.72, -12.72, -12.51, -12.51, -12.27, -12.65, -12.65, -12.41, -12.41, -12.81, -12.18, -12.18, -12.18, -11.9, -11.9, -11.44, -10.73, -10.73, -10.73, -10.85, -10.85, -10.47, -10.12, -10.12, -10.12, -10.12, -9.69, -9.69, -8.85, -7.51, -7.28, -5.99, -4.75, -3.82, -1.91, -2.28, -2.71, 0.0, 0.0, 0.0, 0.0, 0.0, 0.0, 0.0, 6.64, 8.94, 8.49, 8.49, 8.49, 8.49, 8.49, 8.94, 8.94, 8.94, 6.32, 0.0, 0.0, -4.2, 0.0, -9.39, -9.83, 0.0, 0.0, 0.0, 0.0, -8.22, -8.85, -9.48, -7.93, -7.2, -3.31, 0.0, 2.32, 6.04, 7.18, 8.32, 9.2, 9.67, 9.39, 8.3, 8.3, 8.3, 8.3]}]